KC5DAQ-22 Weather Reports


time (UTC)temp
C
wind
direction
speed
KPH
gust
KPH
rain 1hr
cm
rain 24hr
cm
rain mn
cm
humidity
%
barometer
mb
20260505180009 27 92 11.3 25.7 0.00 0.00 0.00 81 1007.3
20260505175909 27 113 12.9 25.7 0.00 0.00 0.00 81 1007.3
20260505175811 27 0 12.9 25.7 0.00 0.00 0.00 81 1007.3
20260505175709 27 0 11.3 25.7 0.00 0.00 0.00 81 1007.4
20260505175609 27 0 8.0 25.7 0.00 0.00 0.00 81 1007.4
20260505175510 27 0 6.4 25.7 0.00 0.00 0.00 81 1007.4
20260505175409 27 103 9.7 25.7 0.00 0.00 0.00 81 1007.4
20260505175309 27 0 14.5 25.7 0.00 0.00 0.00 81 1007.4
20260505175208 27 0 14.5 25.7 0.00 0.00 0.00 80 1007.4
20260505175110 27 0 12.9 25.7 0.00 0.00 0.00 81 1007.5
20260505175010 27 0 14.5 24.1 0.00 0.00 0.00 80 1007.5
20260505174910 27 0 14.5 24.1 0.00 0.00 0.00 80 1007.4
20260505174809 27 0 9.7 20.9 0.00 0.00 0.00 81 1007.4
20260505174708 27 0 8.0 20.9 0.00 0.00 0.00 81 1007.4
20260505174609 27 106 8.0 20.9 0.00 0.00 0.00 81 1007.5
20260505174508 27 0 8.0 20.9 0.00 0.00 0.00 81 1007.5
20260505174409 27 0 6.4 20.9 0.00 0.00 0.00 81 1007.5
20260505174309 27 0 8.0 22.5 0.00 0.00 0.00 81 1007.6
20260505174209 26 0 11.3 22.5 0.00 0.00 0.00 81 1007.5
20260505174109 26 102 14.5 22.5 0.00 0.00 0.00 81 1007.5
20260505174008 26 116 14.5 22.5 0.00 0.00 0.00 81 1007.6
20260505173909 26 103 12.9 22.5 0.00 0.00 0.00 81 1007.6
20260505173811 26 96 11.3 22.5 0.00 0.00 0.00 81 1007.6
20260505173709 26 0 11.3 24.1 0.00 0.00 0.00 81 1007.6
20260505173608 26 0 11.3 24.1 0.00 0.00 0.00 81 1007.6
20260505173508 26 85 11.3 24.1 0.00 0.00 0.00 81 1007.6
20260505173410 26 0 11.3 24.1 0.00 0.00 0.00 81 1007.7
20260505173309 26 0 9.7 24.1 0.00 0.00 0.00 81 1007.7
20260505173209 26 0 9.7 24.1 0.00 0.00 0.00 81 1007.7
20260505173109 26 0 11.3 24.1 0.00 0.00 0.00 81 1007.7
20260505173009 26 0 9.7 24.1 0.00 0.00 0.00 82 1007.7
20260505172909 26 110 12.9 24.1 0.00 0.00 0.00 81 1007.7
20260505172808 26 0 14.5 24.1 0.00 0.00 0.00 81 1007.7
20260505172711 26 0 14.5 24.1 0.00 0.00 0.00 81 1007.7
20260505172610 26 97 11.3 24.1 0.00 0.00 0.00 82 1007.8
20260505172508 26 90 8.0 24.1 0.00 0.00 0.00 82 1007.7
20260505172410 26 0 9.7 24.1 0.00 0.00 0.00 82 1007.7
20260505172308 26 118 12.9 24.1 0.00 0.00 0.00 82 1007.7
20260505172208 26 113 11.3 24.1 0.00 0.00 0.00 82 1007.7
20260505172109 26 0 14.5 24.1 0.00 0.00 0.00 82 1007.7
20260505172009 26 0 14.5 24.1 0.00 0.00 0.00 83 1007.7
20260505171908 26 106 12.9 24.1 0.00 0.00 0.00 83 1007.8
20260505171808 26 0 11.3 24.1 0.00 0.00 0.00 83 1007.7
20260505171710 26 94 11.3 22.5 0.00 0.00 0.00 83 1007.8
20260505171608 26 104 12.9 19.3 0.00 0.00 0.00 84 1007.8
20260505171509 26 0 11.3 22.5 0.00 0.00 0.00 84 1007.7
20260505171408 26 0 8.0 22.5 0.00 0.00 0.00 84 1007.7
20260505171309 26 0 9.7 22.5 0.00 0.00 0.00 84 1007.8
20260505171207 26 110 11.3 22.5 0.00 0.00 0.00 84 1007.8
20260505171108 26 123 11.3 22.5 0.00 0.00 0.00 84 1007.8
20260505171010 26 102 11.3 22.5 0.00 0.00 0.00 84 1007.9
20260505170909 26 114 9.7 22.5 0.00 0.00 0.00 84 1007.9
20260505170808 26 86 11.3 22.5 0.00 0.00 0.00 84 1007.9
20260505170710 26 109 12.9 22.5 0.00 0.00 0.00 84 1007.8
20260505170611 26 117 14.5 22.5 0.00 0.00 0.00 84 1007.8
20260505170508 26 106 11.3 22.5 0.00 0.00 0.00 84 1007.9
20260505170408 26 110 8.0 17.7 0.00 0.00 0.00 83 1007.9
20260505170310 26 97 8.0 17.7 0.00 0.00 0.00 83 1007.9
20260505170208 26 107 9.7 17.7 0.00 0.00 0.00 83 1007.8
20260505170108 26 99 9.7 17.7 0.00 0.00 0.00 82 1007.8
20260505170008 26 0 8.0 24.1 0.00 0.00 0.00 82 1007.8
20260505165909 26 109 8.0 24.1 0.00 0.00 0.00 82 1007.8
20260505165808 26 100 8.0 24.1 0.00 0.00 0.00 82 1007.8
20260505165708 26 0 6.4 24.1 0.00 0.00 0.00 82 1007.8
20260505165608 26 104 9.7 24.1 0.00 0.00 0.00 82 1007.9
20260505165507 26 114 11.3 24.1 0.00 0.00 0.00 82 1007.8
20260505165407 26 100 11.3 24.1 0.00 0.00 0.00 82 1007.8
20260505165309 26 0 11.3 24.1 0.00 0.00 0.00 82 1007.8
20260505165208 26 113 14.5 24.1 0.00 0.00 0.00 82 1007.9
20260505165108 26 0 17.7 24.1 0.00 0.00 0.00 82 1007.9
20260505165008 26 104 16.1 22.5 0.00 0.00 0.00 82 1007.8
20260505164909 26 107 12.9 25.7 0.00 0.00 0.00 82 1007.9
20260505164808 26 120 11.3 25.7 0.00 0.00 0.00 82 1007.9
20260505164707 26 107 12.9 25.7 0.00 0.00 0.00 81 1007.9
20260505164610 26 128 11.3 25.7 0.00 0.00 0.00 82 1007.8
20260505164509 26 89 11.3 25.7 0.00 0.00 0.00 82 1007.8
20260505164408 26 0 12.9 25.7 0.00 0.00 0.00 82 1007.8
20260505164307 26 104 9.7 25.7 0.00 0.00 0.00 82 1007.8
20260505164209 26 94 9.7 25.7 0.00 0.00 0.00 82 1007.9
20260505164107 26 0 12.9 27.4 0.00 0.00 0.00 82 1007.8
20260505164007 26 116 12.9 27.4 0.00 0.00 0.00 82 1007.8
20260505163910 26 104 11.3 27.4 0.00 0.00 0.00 82 1007.8
20260505163808 26 79 8.0 27.4 0.00 0.00 0.00 82 1007.8
20260505163707 26 86 9.7 27.4 0.00 0.00 0.00 82 1007.8
20260505163609 26 0 11.3 27.4 0.00 0.00 0.00 82 1007.8
20260505163508 26 102 12.9 27.4 0.00 0.00 0.00 82 1007.8
20260505163407 26 94 14.5 27.4 0.00 0.00 0.00 82 1007.8
20260505163307 26 109 14.5 27.4 0.00 0.00 0.00 82 1007.8
20260505163208 26 102 12.9 27.4 0.00 0.00 0.00 82 1007.8
20260505163107 26 0 9.7 20.9 0.00 0.00 0.00 82 1007.8
20260505163009 26 116 11.3 20.9 0.00 0.00 0.00 82 1007.8
20260505162908 26 100 12.9 20.9 0.00 0.00 0.00 82 1007.8
20260505162808 26 82 11.3 20.9 0.00 0.00 0.00 82 1007.8
20260505162707 26 104 9.7 20.9 0.00 0.00 0.00 82 1007.7
20260505162607 26 104 9.7 20.9 0.00 0.00 0.00 82 1007.7
20260505162508 26 107 9.7 20.9 0.00 0.00 0.00 82 1007.7
20260505162407 26 99 11.3 20.9 0.00 0.00 0.00 83 1007.7
20260505162307 26 130 12.9 20.9 0.00 0.00 0.00 82 1007.8
20260505162208 26 107 11.3 20.9 0.00 0.00 0.00 82 1007.7
20260505162107 26 116 9.7 20.9 0.00 0.00 0.00 82 1007.8
20260505162006 26 103 8.0 20.9 0.00 0.00 0.00 83 1007.9
20260505161907 26 124 9.7 20.9 0.00 0.00 0.00 83 1007.8
20260505161809 26 117 11.3 20.9 0.00 0.00 0.00 83 1007.7
20260505161708 26 104 11.3 20.9 0.00 0.00 0.00 83 1007.8
20260505161606 26 106 8.0 16.1 0.00 0.00 0.00 83 1007.7
20260505161507 26 8 6.4 16.1 0.00 0.00 0.00 83 1007.7
20260505161407 26 100 4.8 16.1 0.00 0.00 0.00 83 1007.7
20260505161307 26 135 4.8 16.1 0.00 0.00 0.00 83 1007.7
20260505161207 26 93 6.4 16.1 0.00 0.00 0.00 83 1007.7
20260505161107 26 107 9.7 16.1 0.00 0.00 0.00 83 1007.7
20260505161007 26 111 9.7 16.1 0.00 0.00 0.00 84 1007.7
20260505160906 26 97 6.4 17.7 0.00 0.00 0.00 84 1007.7
20260505160806 26 110 6.4 17.7 0.00 0.00 0.00 84 1007.7
20260505160707 26 94 9.7 17.7 0.00 0.00 0.00 83 1007.7
20260505160607 26 96 9.7 17.7 0.00 0.00 0.00 84 1007.7
20260505160507 26 113 6.4 17.7 0.00 0.00 0.00 84 1007.8
20260505160407 26 86 6.4 17.7 0.00 0.00 0.00 84 1007.8
20260505160307 26 86 9.7 17.7 0.00 0.00 0.00 83 1007.8
20260505160206 26 92 9.7 17.7 0.00 0.00 0.00 83 1007.7
20260505160107 26 103 9.7 17.7 0.00 0.00 0.00 83 1007.7
20260505153303 25 155 12.9 19.3 0.00 0.00 0.00 83 1007.5
20260505153202 25 125 12.9 19.3 0.00 0.00 0.00 83 1007.6
20260505153103 25 125 9.7 19.3 0.00 0.00 0.00 83 1007.6
20260505153004 25 130 9.7 19.3 0.00 0.00 0.00 83 1007.6
20260505152903 25 87 9.7 19.3 0.00 0.00 0.00 83 1007.6
20260505152802 25 104 9.7 19.3 0.00 0.00 0.00 83 1007.6
20260505152703 25 107 9.7 19.3 0.00 0.00 0.00 83 1007.6
20260505152603 25 109 8.0 19.3 0.00 0.00 0.00 83 1007.6
20260505152503 25 110 9.7 19.3 0.00 0.00 0.00 83 1007.5
20260505152403 25 78 11.3 19.3 0.00 0.00 0.00 83 1007.6
20260505152305 25 103 9.7 19.3 0.00 0.00 0.00 83 1007.5
20260505152203 25 94 11.3 19.3 0.00 0.00 0.00 83 1007.6
20260505152103 25 111 11.3 19.3 0.00 0.00 0.00 83 1007.5
20260505152003 25 117 9.7 19.3 0.00 0.00 0.00 83 1007.5
20260505151902 25 117 9.7 20.9 0.00 0.00 0.00 83 1007.5
20260505151802 25 100 8.0 20.9 0.00 0.00 0.00 84 1007.4
20260505151703 25 87 8.0 20.9 0.00 0.00 0.00 84 1007.4
20260505151603 25 124 8.0 24.1 0.00 0.00 0.00 84 1007.5
20260505151503 25 94 6.4 24.1 0.00 0.00 0.00 84 1007.5
20260505151403 25 140 9.7 24.1 0.00 0.00 0.00 84 1007.4
20260505151303 25 118 9.7 24.1 0.00 0.00 0.00 84 1007.5
20260505151203 25 96 11.3 24.1 0.00 0.00 0.00 84 1007.5
20260505151103 25 86 11.3 24.1 0.00 0.00 0.00 84 1007.5
20260505151004 25 123 12.9 24.1 0.00 0.00 0.00 84 1007.5
20260505150903 25 94 11.3 24.1 0.00 0.00 0.00 84 1007.5
20260505150803 25 102 12.9 24.1 0.00 0.00 0.00 84 1007.5
20260505150702 25 82 14.5 24.1 0.00 0.00 0.00 84 1007.5
20260505150604 25 134 12.9 24.1 0.00 0.00 0.00 84 1007.5
20260505150502 25 124 11.3 22.5 0.00 0.00 0.00 84 1007.6
20260505150402 25 111 11.3 22.5 0.00 0.00 0.00 84 1007.6
20260505150304 25 106 9.7 22.5 0.00 0.00 0.00 84 1007.6
20260505150203 25 86 8.0 22.5 0.00 0.00 0.00 84 1007.5
20260505140602 25 100 9.7 29.0 0.00 0.00 0.00 86 1007.2
20260505140502 25 83 11.3 29.0 0.00 0.00 0.00 86 1007.2
20260505140403 25 113 14.5 29.0 0.00 0.00 0.00 87 1007.3
20260505140301 25 93 16.1 29.0 0.00 0.00 0.00 87 1007.4
20260505140203 24 87 12.9 25.7 0.00 0.00 0.00 87 1007.4
20260505130212 23 65 9.7 25.7 0.00 0.00 0.00 88 1007.1
20260505130111 23 79 9.7 25.7 0.00 0.00 0.00 88 1007.0
20260505125003 23 82 8.0 17.7 0.00 0.00 0.00 89 1007.0
20260505124903 23 104 6.4 16.1 0.00 0.00 0.00 89 1007.0
20260505124803 23 76 6.4 16.1 0.00 0.00 0.00 89 1007.0
20260505124704 23 69 6.4 16.1 0.00 0.00 0.00 89 1007.1
20260505124603 23 96 6.4 16.1 0.00 0.00 0.00 89 1007.0
20260505124502 23 99 6.4 19.3 0.00 0.00 0.00 89 1007.0
20260505124403 23 73 6.4 19.3 0.00 0.00 0.00 89 1007.0
20260505124304 23 72 6.4 19.3 0.00 0.00 0.00 89 1007.0
20260505124202 23 80 8.0 19.3 0.00 0.00 0.00 89 1007.1
20260505124101 23 79 6.4 19.3 0.00 0.00 0.00 89 1007.1
20260505124002 23 87 6.4 19.3 0.00 0.00 0.00 89 1007.1
20260505123903 23 76 6.4 19.3 0.00 0.00 0.00 90 1007.1
20260505123802 23 47 6.4 19.3 0.00 0.00 0.00 90 1007.1
20260505123702 23 0 9.7 19.3 0.00 0.00 0.00 89 1007.1
20260505123604 23 0 11.3 19.3 0.00 0.00 0.00 89 1007.1
20260505123504 23 71 8.0 16.1 0.00 0.00 0.00 89 1007.2
20260505123401 23 72 8.0 16.1 0.00 0.00 0.00 89 1007.1
20260505123304 23 45 8.0 16.1 0.00 0.00 0.00 89 1007.1
20260505123203 23 45 6.4 16.1 0.00 0.00 0.00 89 1007.1
20260505123104 23 25 8.0 16.1 0.00 0.00 0.00 89 1007.0
20260505123003 23 45 8.0 16.1 0.00 0.00 0.00 90 1007.0
20260505122904 23 24 6.4 16.1 0.00 0.00 0.00 90 1007.0
20260505122804 23 42 6.4 16.1 0.00 0.00 0.00 90 1007.1
20260505122702 23 0 4.8 16.1 0.00 0.00 0.00 90 1007.2
20260505122602 23 35 4.8 11.3 0.00 0.00 0.00 90 1007.1
20260505122503 23 0 6.4 11.3 0.00 0.00 0.00 90 1007.1
20260505122403 23 48 6.4 11.3 0.00 0.00 0.00 90 1007.0
20260505122305 23 34 4.8 11.3 0.00 0.00 0.00 90 1007.0
20260505122203 23 47 4.8 11.3 0.00 0.00 0.00 90 1007.1
20260505122102 23 39 4.8 11.3 0.00 0.00 0.00 90 1007.1
20260505122002 23 31 3.2 11.3 0.00 0.00 0.00 90 1007.2
20260505121903 23 37 4.8 11.3 0.00 0.00 0.00 90 1007.1
20260505121801 23 0 6.4 16.1 0.00 0.00 0.00 90 1007.1
20260505121702 23 0 4.8 16.1 0.00 0.00 0.00 90 1007.0
20260505121602 23 41 3.2 16.1 0.00 0.00 0.00 90 1007.0
20260505121502 23 0 4.8 16.1 0.00 0.00 0.00 90 1007.0
20260505121401 23 42 4.8 16.1 0.00 0.00 0.00 90 1007.0
20260505121301 23 34 4.8 16.1 0.00 0.00 0.00 90 1006.9
20260505121203 23 28 4.8 17.7 0.00 0.00 0.00 89 1006.8
20260505121101 23 32 6.4 17.7 0.00 0.00 0.00 89 1006.7
20260505121001 23 45 6.4 17.7 0.00 0.00 0.00 89 1006.7
20260505120901 23 32 6.4 17.7 0.00 0.00 0.00 89 1006.7
20260505120802 23 27 6.4 17.7 0.00 0.00 0.00 89 1006.6
20260505120701 23 35 6.4 17.7 0.00 0.00 0.00 89 1006.5
20260505120601 23 45 6.4 24.1 0.00 0.00 0.00 89 1006.6
20260505120503 23 41 6.4 24.1 0.00 0.00 0.00 89 1006.6
20260505120401 23 0 9.7 24.1 0.00 0.00 0.00 89 1006.5
20260505120300 23 0 9.7 24.1 0.00 0.00 0.00 89 1006.6
20260505120202 23 41 6.4 24.1 0.00 0.00 0.00 89 1006.6
20260505120002 23 37 8.0 24.1 0.00 0.00 0.00 89 1006.7
20260505115901 23 44 8.0 24.1 0.00 0.00 0.00 89 1006.6
20260505115802 23 45 8.0 24.1 0.00 0.00 0.00 89 1006.6
20260505115702 23 39 8.0 24.1 0.00 0.00 0.00 89 1006.6
20260505115601 23 37 6.4 22.5 0.00 0.00 0.00 89 1006.5
20260505115502 23 0 6.4 22.5 0.00 0.00 0.00 89 1006.6
20260505115402 23 30 6.4 22.5 0.00 0.00 0.00 89 1006.6
20260505115300 23 52 8.0 22.5 0.00 0.00 0.00 89 1006.6
20260505115200 23 49 9.7 22.5 0.00 0.00 0.00 89 1006.6
20260505115103 23 44 9.7 22.5 0.00 0.00 0.00 89 1006.6
20260505115000 23 34 8.0 22.5 0.00 0.00 0.00 89 1006.7
20260505114901 23 56 9.7 22.5 0.00 0.00 0.00 89 1006.7
20260505114801 23 44 14.5 22.5 0.00 0.00 0.00 89 1006.8
20260505114702 23 0 12.9 22.5 0.00 0.00 0.00 89 1006.9
20260505114601 23 41 9.7 22.5 0.00 0.00 0.00 89 1006.9
20260505114500 23 0 9.7 22.5 0.00 0.00 0.00 89 1006.9
20260505114402 23 41 9.7 22.5 0.00 0.00 0.00 89 1006.9
20260505114301 22 0 9.7 22.5 0.00 0.00 0.00 89 1007.0
20260505114201 23 0 8.0 19.3 0.00 0.00 0.00 89 1007.0
20260505114100 23 0 8.0 19.3 0.00 0.00 0.00 89 1007.1
20260505114000 22 0 8.0 19.3 0.00 0.00 0.00 89 1007.1
20260505113900 22 0 6.4 19.3 0.00 0.00 0.00 89 1007.0
20260505113800 23 0 3.2 19.3 0.00 0.00 0.00 89 1007.0
20260505113700 22 0 6.4 19.3 0.00 0.00 0.00 89 1007.1
20260505113600 22 32 9.7 19.3 0.00 0.00 0.00 89 1006.9
20260505113501 22 28 6.4 17.7 0.00 0.00 0.00 89 1007.0
20260505113401 22 34 6.4 17.7 0.00 0.00 0.00 89 1006.9
20260505113300 22 42 8.0 17.7 0.00 0.00 0.00 89 1006.9
20260505113200 22 41 8.0 17.7 0.00 0.00 0.00 90 1006.9
20260505113100 22 0 8.0 17.7 0.00 0.00 0.00 89 1006.9
20260505113002 22 0 9.7 17.7 0.00 0.00 0.00 89 1006.9
20260505112901 22 39 8.0 17.7 0.00 0.00 0.00 89 1006.9
20260505112800 22 47 8.0 17.7 0.00 0.00 0.00 89 1006.9
20260505112701 22 39 6.4 14.5 0.00 0.00 0.00 89 1006.8
20260505112602 22 47 6.4 14.5 0.00 0.00 0.00 89 1006.8
20260505112501 22 0 8.0 14.5 0.00 0.00 0.00 89 1006.7
20260505112400 22 44 6.4 16.1 0.00 0.00 0.00 89 1006.7
20260505112301 22 41 4.8 16.1 0.00 0.00 0.00 89 1006.7
20260505112200 22 42 3.2 16.1 0.00 0.00 0.00 89 1006.7
20260505112100 22 35 6.4 16.1 0.00 0.00 0.00 89 1006.7
20260505112000 22 41 8.0 16.1 0.00 0.00 0.00 89 1006.8
20260505111900 22 45 6.4 16.1 0.00 0.00 0.00 89 1006.7
20260505111800 22 41 6.4 16.1 0.00 0.00 0.00 90 1006.7
20260505111701 22 44 4.8 16.1 0.00 0.00 0.00 89 1006.7
20260505111602 22 42 6.4 16.1 0.00 0.00 0.00 89 1006.7
20260505111501 22 0 6.4 16.1 0.00 0.00 0.00 89 1006.7
20260505111400 22 42 6.4 14.5 0.00 0.00 0.00 89 1006.8
20260505111301 22 47 4.8 11.3 0.00 0.00 0.00 89 1006.7
20260505111201 22 32 3.2 14.5 0.00 0.00 0.00 89 1006.7
20260505111101 22 31 4.8 14.5 0.00 0.00 0.00 89 1006.6
20260505111002 22 32 3.2 16.1 0.00 0.00 0.00 89 1006.6
20260505110902 22 25 1.6 16.1 0.00 0.00 0.00 90 1006.5
20260505110800 22 32 3.2 16.1 0.00 0.00 0.00 90 1006.5
20260505110659 22 30 4.8 16.1 0.00 0.00 0.00 90 1006.6
20260505110559 22 21 4.8 16.1 0.00 0.00 0.00 90 1006.5
20260505110500 22 42 6.4 16.1 0.00 0.00 0.00 89 1006.5
20260505110359 22 47 6.4 16.1 0.00 0.00 0.00 89 1006.6
20260505110259 22 48 4.8 16.1 0.00 0.00 0.00 90 1006.7
20260505110201 22 34 6.4 16.1 0.00 0.00 0.00 90 1006.7
20260505102159 22 35 3.2 20.9 0.00 0.00 0.00 90 1006.6
20260505102101 22 35 6.4 20.9 0.00 0.00 0.00 90 1006.6
20260505102000 22 48 9.7 20.9 0.00 0.00 0.00 90 1006.7
20260505101858 22 45 8.0 20.9 0.00 0.00 0.00 90 1006.7
20260505101759 22 44 6.4 11.3 0.00 0.00 0.00 90 1006.6
20260505101659 22 27 4.8 8.0 0.00 0.00 0.00 90 1006.6
20260505101558 22 31 4.8 8.0 0.00 0.00 0.00 90 1006.7
20260505101459 22 34 3.2 8.0 0.00 0.00 0.00 90 1006.7
20260505101359 22 37 1.6 14.5 0.00 0.00 0.00 89 1006.8
20260505101258 22 17 3.2 16.1 0.00 0.00 0.00 89 1006.8
20260505101158 22 31 4.8 17.7 0.00 0.00 0.00 89 1006.8
20260505101058 22 35 4.8 17.7 0.00 0.00 0.00 90 1006.8
20260505100959 22 42 4.8 17.7 0.00 0.00 0.00 90 1006.9
20260505100900 22 44 3.2 17.7 0.00 0.00 0.00 90 1006.9
20260505100758 22 44 1.6 17.7 0.00 0.00 0.00 90 1006.9
20260505100659 22 49 3.2 17.7 0.00 0.00 0.00 90 1006.9
20260505100558 22 41 6.4 17.7 0.00 0.00 0.00 90 1006.9
20260505100458 22 44 8.0 17.7 0.00 0.00 0.00 90 1006.9
20260505100359 22 37 8.0 17.7 0.00 0.00 0.00 89 1006.9
20260505100259 22 39 6.4 17.7 0.00 0.00 0.00 90 1006.9
20260505100158 22 42 6.4 19.3 0.00 0.00 0.00 90 1006.9
20260505100058 22 48 6.4 19.3 0.00 0.00 0.00 90 1006.9
20260505100000 22 44 4.8 19.3 0.00 0.00 0.00 90 1006.9
20260505095858 22 48 3.2 19.3 0.00 0.00 0.00 90 1006.9
20260505095759 22 34 3.2 19.3 0.00 0.00 0.00 90 1006.8
20260505095700 22 39 4.8 19.3 0.00 0.00 0.00 90 1006.9
20260505095559 22 37 6.4 19.3 0.00 0.00 0.00 90 1006.9
20260505095458 22 47 6.4 19.3 0.00 0.00 0.00 90 1006.8
20260505095358 22 28 9.7 19.3 0.00 0.00 0.00 90 1006.8
20260505095300 22 42 9.7 19.3 0.00 0.00 0.00 90 1006.9
20260505095157 22 47 6.4 17.7 0.00 0.00 0.00 90 1006.9
20260505095058 22 35 4.8 11.3 0.00 0.00 0.00 90 1006.8
20260505094959 22 31 6.4 11.3 0.00 0.00 0.00 90 1006.8
20260505094859 22 38 6.4 11.3 0.00 0.00 0.00 90 1006.8
20260505094758 22 35 4.8 11.3 0.00 0.00 0.00 90 1006.8
20260505094658 22 24 6.4 11.3 0.00 0.00 0.00 90 1006.8
20260505094559 22 35 4.8 11.3 0.00 0.00 0.00 90 1006.8
20260505094459 22 35 4.8 11.3 0.00 0.00 0.00 90 1006.8
20260505094358 22 38 4.8 11.3 0.00 0.00 0.00 90 1006.8
20260505094300 22 31 4.8 11.3 0.00 0.00 0.00 90 1006.7
20260505094157 22 30 4.8 11.3 0.00 0.00 0.00 90 1006.8
20260505094057 22 39 4.8 14.5 0.00 0.00 0.00 90 1006.8
20260505093959 22 39 3.2 14.5 0.00 0.00 0.00 90 1006.8
20260505093859 22 32 3.2 14.5 0.00 0.00 0.00 90 1006.8
20260505093757 22 39 4.8 14.5 0.00 0.00 0.00 90 1006.9
20260505093656 22 28 3.2 14.5 0.00 0.00 0.00 90 1006.9
20260505093555 22 37 3.2 14.5 0.00 0.00 0.00 90 1007.0
20260505093453 22 37 4.8 14.5 0.00 0.00 0.00 90 1007.0
20260505093351 22 38 3.2 14.5 0.00 0.00 0.00 90 1007.0
20260505093246 22 37 6.4 14.5 0.00 0.00 0.00 90 1007.0
20260505093144 22 37 6.4 14.5 0.00 0.00 0.00 90 1007.0
20260505093043 22 32 3.2 11.3 0.00 0.00 0.00 90 1007.0
20260505092942 22 32 3.2 11.3 0.00 0.00 0.00 90 1007.0
20260505092839 22 32 3.2 11.3 0.00 0.00 0.00 90 1007.0
20260505092738 22 37 3.2 11.3 0.00 0.00 0.00 90 1007.0
20260505092636 22 38 3.2 11.3 0.00 0.00 0.00 90 1007.0
20260505092536 22 30 3.2 11.3 0.00 0.00 0.00 90 1007.0
20260505092434 22 44 4.8 11.3 0.00 0.00 0.00 90 1007.0
20260505092333 22 35 4.8 11.3 0.00 0.00 0.00 90 1007.0
20260505092232 22 35 4.8 14.5 0.00 0.00 0.00 90 1007.1
20260505092133 22 37 4.8 14.5 0.00 0.00 0.00 90 1007.1
20260505092031 22 44 4.8 14.5 0.00 0.00 0.00 90 1007.1
20260505091930 22 42 4.8 14.5 0.00 0.00 0.00 90 1007.1
20260505091831 22 42 3.2 14.5 0.00 0.00 0.00 90 1007.0
20260505091732 22 38 3.2 14.5 0.00 0.00 0.00 90 1007.0
20260505091631 21 34 3.2 14.5 0.00 0.00 0.00 90 1007.0
20260505091529 22 34 4.8 14.5 0.00 0.00 0.00 90 1007.1
20260505091428 22 0 4.8 14.5 0.00 0.00 0.00 90 1007.0
20260505091326 21 44 3.2 14.5 0.00 0.00 0.00 90 1007.0
20260505091223 21 59 3.2 11.3 0.00 0.00 0.00 90 1007.1
20260505091124 21 39 4.8 11.3 0.00 0.00 0.00 90 1007.0
20260505091021 21 48 3.2 16.1 0.00 0.00 0.00 90 1007.1
20260505090920 22 37 3.2 16.1 0.00 0.00 0.00 90 1007.1
20260505090818 21 37 3.2 16.1 0.00 0.00 0.00 90 1007.1
20260505090718 22 45 3.2 16.1 0.00 0.00 0.00 90 1007.1
20260505090616 22 48 4.8 16.1 0.00 0.00 0.00 90 1007.1
20260505090513 21 31 6.4 16.1 0.00 0.00 0.00 90 1007.1
20260505090413 21 35 6.4 16.1 0.00 0.00 0.00 89 1007.0
20260505090311 22 37 4.8 16.1 0.00 0.00 0.00 89 1007.1
20260505090210 21 31 6.4 16.1 0.00 0.00 0.00 89 1007.1
20260505090108 21 37 6.4 16.1 0.00 0.00 0.00 89 1007.1
20260505090007 21 38 4.8 14.5 0.00 0.00 0.00 89 1007.2
20260505085907 22 42 3.2 14.5 0.00 0.00 0.00 89 1007.1
20260505085805 22 34 4.8 14.5 0.00 0.00 0.00 89 1007.1
20260505085704 22 39 4.8 14.5 0.00 0.00 0.00 89 1007.1
20260505085602 22 27 3.2 14.5 0.00 0.00 0.00 89 1007.1
20260505085505 22 41 6.4 14.5 0.00 0.00 0.00 89 1007.1
20260505085402 22 38 6.4 14.5 0.00 0.00 0.00 89 1007.0
20260505085304 22 18 6.4 14.5 0.00 0.00 0.00 89 1007.1
20260505085202 22 39 6.4 14.5 0.00 0.00 0.00 89 1007.1
20260505085103 22 45 6.4 14.5 0.00 0.00 0.00 89 1007.1
20260505085003 22 34 4.8 14.5 0.00 0.00 0.00 89 1007.1
20260505084902 22 35 4.8 14.5 0.00 0.00 0.00 89 1007.1
20260505084804 22 41 4.8 14.5 0.00 0.00 0.00 89 1007.0
20260505084702 22 38 4.8 14.5 0.00 0.00 0.00 89 1007.0
20260505084602 22 42 6.4 14.5 0.00 0.00 0.00 89 1006.9
20260505084503 22 38 6.4 14.5 0.00 0.00 0.00 89 1007.0
20260505084403 22 20 6.4 14.5 0.00 0.00 0.00 89 1007.1
20260505084302 22 32 6.4 14.5 0.00 0.00 0.00 89 1007.0
20260505084202 22 41 6.4 14.5 0.00 0.00 0.00 89 1007.1
20260505084104 22 45 4.8 9.7 0.00 0.00 0.00 89 1007.1
20260505084003 22 45 4.8 9.7 0.00 0.00 0.00 89 1007.1
20260505083903 22 24 4.8 8.0 0.00 0.00 0.00 89 1007.1
20260505083802 22 32 4.8 8.0 0.00 0.00 0.00 89 1007.2
20260505083703 22 44 4.8 8.0 0.00 0.00 0.00 89 1007.2
20260505083603 22 37 4.8 8.0 0.00 0.00 0.00 89 1007.2
20260505083503 22 47 4.8 9.7 0.00 0.00 0.00 89 1007.3
20260505083402 22 49 4.8 14.5 0.00 0.00 0.00 89 1007.3
20260505083304 22 42 4.8 14.5 0.00 0.00 0.00 89 1007.3
20260505083202 22 41 4.8 14.5 0.00 0.00 0.00 88 1007.3
20260505083102 22 34 4.8 14.5 0.00 0.00 0.00 88 1007.3
20260505083005 22 38 3.2 14.5 0.00 0.00 0.00 88 1007.3
20260505082903 22 41 3.2 14.5 0.00 0.00 0.00 88 1007.3
20260505082802 22 37 4.8 14.5 0.00 0.00 0.00 88 1007.3
20260505082703 22 45 4.8 14.5 0.00 0.00 0.00 88 1007.2
20260505082603 22 48 8.0 14.5 0.00 0.00 0.00 88 1007.4
20260505082504 22 13 8.0 14.5 0.00 0.00 0.00 88 1007.4
20260505082404 22 32 6.4 14.5 0.00 0.00 0.00 88 1007.4
20260505082304 22 41 6.4 14.5 0.00 0.00 0.00 88 1007.4
20260505082202 22 37 6.4 14.5 0.00 0.00 0.00 88 1007.4
20260505082102 22 38 6.4 14.5 0.00 0.00 0.00 88 1007.3
20260505082002 22 45 6.4 14.5 0.00 0.00 0.00 88 1007.4
20260505081903 22 45 8.0 14.5 0.00 0.00 0.00 88 1007.4
20260505081802 22 44 6.4 14.5 0.00 0.00 0.00 88 1007.4
20260505081703 22 39 4.8 9.7 0.00 0.00 0.00 88 1007.4
20260505081603 22 23 4.8 9.7 0.00 0.00 0.00 88 1007.4
20260505081502 22 38 6.4 11.3 0.00 0.00 0.00 88 1007.4
20260505081401 22 38 4.8 16.1 0.00 0.00 0.00 88 1007.4
20260505081303 22 41 4.8 16.1 0.00 0.00 0.00 88 1007.4
20260505081201 22 51 6.4 19.3 0.00 0.00 0.00 88 1007.4
20260505081059 22 37 4.8 19.3 0.00 0.00 0.00 88 1007.4
20260505080958 22 39 6.4 19.3 0.00 0.00 0.00 88 1007.5
20260505080857 22 30 4.8 19.3 0.00 0.00 0.00 88 1007.6
20260505080756 22 45 6.4 19.3 0.00 0.00 0.00 88 1007.5
20260505080655 22 48 8.0 19.3 0.00 0.00 0.00 88 1007.5
20260505080556 22 39 9.7 19.3 0.00 0.00 0.00 88 1007.5
20260505080457 22 44 9.7 19.3 0.00 0.00 0.00 88 1007.6
20260505080356 22 47 9.7 19.3 0.00 0.00 0.00 88 1007.5
20260505080256 22 49 8.0 19.3 0.00 0.00 0.00 88 1007.5
20260505080157 22 35 6.4 17.7 0.00 0.00 0.00 88 1007.5
20260505080056 22 38 9.7 17.7 0.00 0.00 0.00 88 1007.5
20260505075955 22 35 9.7 17.7 0.00 0.00 0.00 88 1007.4
20260505075855 22 49 6.4 16.1 0.00 0.00 0.00 88 1007.5
20260505075756 22 44 6.4 16.1 0.00 0.00 0.00 88 1007.5
20260505075655 22 42 8.0 16.1 0.00 0.00 0.00 88 1007.4
20260505075556 22 42 6.4 16.1 0.00 0.00 0.00 88 1007.5
20260505075456 22 37 6.4 16.1 0.00 0.00 0.00 88 1007.5
20260505075355 22 32 6.4 16.1 0.00 0.00 0.00 88 1007.5
20260505075256 22 18 8.0 16.1 0.00 0.00 0.00 88 1007.6
20260505075157 22 45 8.0 16.1 0.00 0.00 0.00 88 1007.5
20260505075055 22 39 6.4 11.3 0.00 0.00 0.00 88 1007.5
20260505074956 22 54 4.8 11.3 0.00 0.00 0.00 88 1007.6
20260505074855 22 41 4.8 11.3 0.00 0.00 0.00 88 1007.6
20260505074757 21 45 6.4 11.3 0.00 0.00 0.00 88 1007.7
20260505074655 21 39 6.4 11.3 0.00 0.00 0.00 88 1007.5
20260505074555 21 44 4.8 11.3 0.00 0.00 0.00 88 1007.6
20260505074456 21 41 6.4 11.3 0.00 0.00 0.00 88 1007.6
20260505074356 21 42 4.8 11.3 0.00 0.00 0.00 88 1007.5
20260505074255 21 35 4.8 11.3 0.00 0.00 0.00 88 1007.6
20260505074154 21 44 4.8 11.3 0.00 0.00 0.00 88 1007.6
20260505074056 21 38 4.8 11.3 0.00 0.00 0.00 88 1007.5
20260505073955 21 52 6.4 11.3 0.00 0.00 0.00 88 1007.5
20260505073856 21 49 6.4 11.3 0.00 0.00 0.00 88 1007.5
20260505073755 21 48 6.4 11.3 0.00 0.00 0.00 88 1007.5
20260505073654 21 34 6.4 9.7 0.00 0.00 0.00 88 1007.5
20260505073555 21 37 6.4 9.7 0.00 0.00 0.00 88 1007.5
20260505073456 21 44 4.8 9.7 0.00 0.00 0.00 88 1007.5
20260505073356 21 42 3.2 9.7 0.00 0.00 0.00 88 1007.5
20260505073254 21 42 3.2 9.7 0.00 0.00 0.00 88 1007.6
20260505073155 21 45 3.2 9.7 0.00 0.00 0.00 88 1007.7
20260505073056 21 34 4.8 9.7 0.00 0.00 0.00 88 1007.6
20260505072955 21 35 4.8 9.7 0.00 0.00 0.00 88 1007.6
20260505072854 21 25 6.4 9.7 0.00 0.00 0.00 88 1007.7
20260505072755 21 25 6.4 9.7 0.00 0.00 0.00 88 1007.7
20260505072657 21 39 4.8 8.0 0.00 0.00 0.00 88 1007.7
20260505072554 21 38 3.2 8.0 0.00 0.00 0.00 88 1007.7
20260505072455 21 34 3.2 8.0 0.00 0.00 0.00 88 1007.8
20260505072355 21 45 3.2 8.0 0.00 0.00 0.00 88 1007.7
20260505072254 21 38 3.2 6.4 0.00 0.00 0.00 88 1007.7
20260505072155 21 39 3.2 6.4 0.00 0.00 0.00 88 1007.8
20260505072054 21 34 1.6 6.4 0.00 0.00 0.00 88 1007.7
20260505071955 21 34 3.2 6.4 0.00 0.00 0.00 88 1007.8
20260505071854 21 35 3.2 8.0 0.00 0.00 0.00 88 1007.8
20260505071754 21 39 1.6 8.0 0.00 0.00 0.00 88 1007.9
20260505071655 21 37 1.6 8.0 0.00 0.00 0.00 88 1007.9
20260505071555 21 35 1.6 8.0 0.00 0.00 0.00 88 1007.9
20260505071455 21 38 3.2 8.0 0.00 0.00 0.00 88 1007.9
20260505071355 21 45 3.2 8.0 0.00 0.00 0.00 87 1007.8
20260505071256 21 49 3.2 8.0 0.00 0.00 0.00 88 1007.9
20260505071155 21 49 3.2 11.3 0.00 0.00 0.00 88 1007.8
20260505071055 21 49 3.2 11.3 0.00 0.00 0.00 88 1007.8
20260505070935 21 31 3.2 11.3 0.00 0.00 0.00 88 1007.9
20260505070833 21 45 3.2 11.3 0.00 0.00 0.00 88 1007.9
20260505070731 21 34 3.2 11.3 0.00 0.00 0.00 87 1007.8
20260505070630 21 27 3.2 11.3 0.00 0.00 0.00 87 1007.8
20260505070532 21 49 3.2 11.3 0.00 0.00 0.00 87 1007.8
20260505070433 21 31 4.8 11.3 0.00 0.00 0.00 87 1007.8
20260505070331 21 47 4.8 11.3 0.00 0.00 0.00 87 1007.9
20260505070231 21 44 4.8 11.3 0.00 0.00 0.00 87 1007.9
20260505070132 21 45 4.8 11.3 0.00 0.00 0.00 87 1008.0
20260505070033 21 28 3.2 9.7 0.00 0.00 0.00 87 1007.9
20260505065931 21 38 3.2 16.1 0.00 0.00 0.00 87 1008.0
20260505065832 21 27 4.8 16.1 0.00 0.00 0.00 87 1008.0
20260505065732 21 30 4.8 16.1 0.00 0.00 0.00 87 1007.9
20260505065632 21 49 6.4 16.1 0.00 0.00 0.00 87 1007.9
20260505065531 21 45 6.4 16.1 0.00 0.00 0.00 87 1007.9
20260505065434 21 37 6.4 16.1 0.00 0.00 0.00 87 1007.9
20260505065333 21 24 4.8 16.1 0.00 0.00 0.00 87 1008.0
20260505065232 21 31 4.8 16.1 0.00 0.00 0.00 87 1007.9
20260505065131 21 42 6.4 16.1 0.00 0.00 0.00 87 1007.9
20260505065030 21 38 6.4 16.1 0.00 0.00 0.00 87 1007.9
20260505064931 21 39 6.4 11.3 0.00 0.00 0.00 87 1008.0
20260505064831 21 49 4.8 11.3 0.00 0.00 0.00 87 1008.0
20260505064732 21 27 3.2 11.3 0.00 0.00 0.00 87 1008.0
20260505064632 21 31 4.8 11.3 0.00 0.00 0.00 87 1008.0
20260505064530 21 28 6.4 11.3 0.00 0.00 0.00 87 1008.0
20260505064430 21 39 6.4 11.3 0.00 0.00 0.00 87 1008.0
20260505064332 21 30 3.2 11.3 0.00 0.00 0.00 87 1008.1
20260505064232 21 38 3.2 11.3 0.00 0.00 0.00 87 1008.1
20260505064131 21 32 4.8 11.3 0.00 0.00 0.00 87 1008.1
20260505064032 21 44 4.8 11.3 0.00 0.00 0.00 87 1008.2
20260505063931 21 34 4.8 11.3 0.00 0.00 0.00 87 1008.2
20260505063831 21 44 4.8 11.3 0.00 0.00 0.00 87 1008.3
20260505063732 21 38 4.8 11.3 0.00 0.00 0.00 87 1008.2
20260505063632 21 49 4.8 11.3 0.00 0.00 0.00 87 1008.3
20260505063530 21 41 3.2 11.3 0.00 0.00 0.00 87 1008.2
20260505063431 21 47 3.2 14.5 0.00 0.00 0.00 87 1008.3
20260505063333 21 45 4.8 14.5 0.00 0.00 0.00 87 1008.4
20260505063231 21 37 4.8 14.5 0.00 0.00 0.00 87 1008.4
20260505063131 21 44 6.4 14.5 0.00 0.00 0.00 87 1008.4
20260505063032 21 44 6.4 14.5 0.00 0.00 0.00 87 1008.3
20260505062932 21 37 4.8 14.5 0.00 0.00 0.00 87 1008.3
20260505062831 21 52 3.2 14.5 0.00 0.00 0.00 87 1008.3
20260505062731 21 45 4.8 14.5 0.00 0.00 0.00 87 1008.3
20260505062633 21 39 6.4 14.5 0.00 0.00 0.00 87 1008.3
20260505062531 21 45 8.0 14.5 0.00 0.00 0.00 87 1008.4
20260505062431 21 31 6.4 14.5 0.00 0.00 0.00 87 1008.4
20260505062331 21 54 4.8 11.3 0.00 0.00 0.00 87 1008.4
20260505062230 21 35 6.4 11.3 0.00 0.00 0.00 87 1008.4
20260505062131 21 38 6.4 11.3 0.00 0.00 0.00 87 1008.5
20260505062032 21 41 6.4 11.3 0.00 0.00 0.00 87 1008.5
20260505061931 21 47 6.4 11.3 0.00 0.00 0.00 87 1008.5
20260505061831 21 37 6.4 11.3 0.00 0.00 0.00 87 1008.5
20260505061731 21 45 6.4 11.3 0.00 0.00 0.00 87 1008.5
20260505061632 21 48 4.8 11.3 0.00 0.00 0.00 86 1008.6
20260505061532 21 41 3.2 11.3 0.00 0.00 0.00 86 1008.5
20260505061431 21 34 3.2 11.3 0.00 0.00 0.00 86 1008.6
20260505061332 21 18 4.8 11.3 0.00 0.00 0.00 86 1008.6
20260505061233 21 42 4.8 11.3 0.00 0.00 0.00 86 1008.6
20260505061130 21 35 4.8 11.3 0.00 0.00 0.00 86 1008.6
20260505061029 21 31 6.4 11.3 0.00 0.00 0.00 86 1008.6
20260505060927 21 52 6.4 11.3 0.00 0.00 0.00 86 1008.5
20260505060825 21 28 4.8 11.3 0.00 0.00 0.00 86 1008.6
20260505060725 21 45 4.8 11.3 0.00 0.00 0.00 86 1008.6
20260505060620 21 32 4.8 11.3 0.00 0.00 0.00 86 1008.5
20260505060521 21 41 3.2 11.3 0.00 0.00 0.00 86 1008.5
20260505060419 21 18 4.8 11.3 0.00 0.00 0.00 86 1008.5
20260505060319 21 61 6.4 11.3 0.00 0.00 0.00 86 1008.5
20260505060217 21 35 4.8 11.3 0.00 0.00 0.00 86 1008.5
20260505060115 21 41 4.8 11.3 0.00 0.00 0.00 86 1008.5
20260505060015 21 37 4.8 11.3 0.00 0.00 0.00 86 1008.6
20260505055913 21 35 4.8 11.3 0.00 0.00 0.00 86 1008.6
20260505055812 21 42 6.4 11.3 0.00 0.00 0.00 86 1008.5
20260505055710 21 45 6.4 11.3 0.00 0.00 0.00 86 1008.6
20260505055609 21 37 6.4 11.3 0.00 0.00 0.00 86 1008.5
20260505055507 21 47 4.8 11.3 0.00 0.00 0.00 86 1008.6
20260505055407 21 39 4.8 11.3 0.00 0.00 0.00 86 1008.6
20260505055307 21 34 6.4 11.3 0.00 0.00 0.00 86 1008.5
20260505055207 21 37 6.4 11.3 0.00 0.00 0.00 86 1008.5
20260505055104 21 41 4.8 11.3 0.00 0.00 0.00 86 1008.6
20260505055003 21 38 6.4 11.3 0.00 0.00 0.00 86 1008.5
20260505054902 21 49 6.4 11.3 0.00 0.00 0.00 86 1008.6
20260505054801 21 39 4.8 9.7 0.00 0.00 0.00 86 1008.6
20260505054703 21 38 4.8 9.7 0.00 0.00 0.00 86 1008.6
20260505054602 21 37 6.4 9.7 0.00 0.00 0.00 86 1008.6
20260505054504 21 38 4.8 9.7 0.00 0.00 0.00 85 1008.6
20260505054402 21 27 4.8 9.7 0.00 0.00 0.00 85 1008.6
20260505054303 21 25 4.8 9.7 0.00 0.00 0.00 85 1008.7
20260505054202 21 31 4.8 9.7 0.00 0.00 0.00 85 1008.7
20260505054104 21 42 4.8 9.7 0.00 0.00 0.00 85 1008.7
20260505054003 21 44 4.8 9.7 0.00 0.00 0.00 85 1008.7
20260505053902 21 37 4.8 9.7 0.00 0.00 0.00 85 1008.7
20260505053802 21 35 4.8 9.7 0.00 0.00 0.00 85 1008.7
20260505053703 21 32 4.8 9.7 0.00 0.00 0.00 85 1008.7
20260505053603 21 30 4.8 9.7 0.00 0.00 0.00 85 1008.7
20260505053502 21 44 3.2 9.7 0.00 0.00 0.00 85 1008.7
20260505053402 21 49 3.2 9.7 0.00 0.00 0.00 85 1008.8
20260505053303 21 41 3.2 9.7 0.00 0.00 0.00 85 1008.8
20260505053202 21 48 3.2 11.3 0.00 0.00 0.00 85 1008.8
20260505053103 21 38 3.2 11.3 0.00 0.00 0.00 85 1008.9
20260505053002 21 27 4.8 11.3 0.00 0.00 0.00 85 1008.9
20260505052903 21 42 6.4 11.3 0.00 0.00 0.00 85 1009.0
20260505052803 21 48 6.4 11.3 0.00 0.00 0.00 85 1008.9
20260505052702 21 42 4.8 11.3 0.00 0.00 0.00 85 1008.9
20260505052602 21 42 4.8 11.3 0.00 0.00 0.00 85 1008.9
20260505052502 21 52 4.8 11.3 0.00 0.00 0.00 85 1008.9
20260505052402 21 48 4.8 11.3 0.00 0.00 0.00 85 1008.9
20260505052304 21 45 4.8 11.3 0.00 0.00 0.00 85 1008.9
20260505052202 21 47 3.2 14.5 0.00 0.00 0.00 85 1008.9
20260505052104 21 39 3.2 14.5 0.00 0.00 0.00 84 1008.9
20260505052002 22 42 4.8 14.5 0.00 0.00 0.00 84 1008.9
20260505051901 22 39 4.8 17.7 0.00 0.00 0.00 84 1009.0
20260505051802 22 45 4.8 17.7 0.00 0.00 0.00 84 1008.9
20260505051702 22 44 6.4 17.7 0.00 0.00 0.00 84 1009.0
20260505051604 22 45 6.4 17.7 0.00 0.00 0.00 84 1008.9
20260505051504 22 44 6.4 17.7 0.00 0.00 0.00 84 1009.0
20260505051402 22 41 8.0 17.7 0.00 0.00 0.00 84 1009.0
20260505051302 22 42 6.4 17.7 0.00 0.00 0.00 84 1009.0
20260505051203 22 47 4.8 17.7 0.00 0.00 0.00 84 1009.0
20260505051102 22 35 6.4 17.7 0.00 0.00 0.00 84 1009.0
20260505051002 22 49 6.4 17.7 0.00 0.00 0.00 84 1008.9
20260505050903 22 41 6.4 11.3 0.00 0.00 0.00 84 1008.9
20260505050803 22 35 6.4 11.3 0.00 0.00 0.00 84 1008.8
20260505050702 22 38 4.8 11.3 0.00 0.00 0.00 84 1008.9
20260505050603 22 39 4.8 16.1 0.00 0.00 0.00 84 1008.9
20260505050503 22 51 4.8 16.1 0.00 0.00 0.00 84 1008.9
20260505050402 22 49 4.8 16.1 0.00 0.00 0.00 84 1008.9
20260505050303 22 48 4.8 19.3 0.00 0.00 0.00 84 1008.9
20260505050203 22 37 6.4 19.3 0.00 0.00 0.00 83 1008.9
20260505041750 22 49 9.7 19.3 0.00 0.00 0.00 82 1008.8
20260505041651 22 80 9.7 19.3 0.00 0.00 0.00 82 1008.8
20260505041551 22 61 6.4 19.3 0.00 0.00 0.00 82 1008.8
20260505041450 22 51 8.0 19.3 0.00 0.00 0.00 81 1008.7
20260505041351 22 59 8.0 19.3 0.00 0.00 0.00 81 1008.8
20260505041252 22 51 8.0 19.3 0.00 0.00 0.00 81 1008.8
20260505041152 22 44 9.7 19.3 0.00 0.00 0.00 81 1008.8
20260505041051 22 56 9.7 19.3 0.00 0.00 0.00 81 1008.9
20260505040950 22 18 8.0 20.9 0.00 0.00 0.00 81 1009.0
20260505040850 22 51 9.7 20.9 0.00 0.00 0.00 81 1009.1
20260505040749 22 66 9.7 20.9 0.00 0.00 0.00 81 1009.1
20260505040647 22 63 9.7 20.9 0.00 0.00 0.00 81 1009.2
20260505040547 22 42 8.0 20.9 0.00 0.00 0.00 81 1009.2
20260505040445 22 39 6.4 20.9 0.00 0.00 0.00 81 1009.1
20260505040343 22 66 9.7 20.9 0.00 0.00 0.00 81 1009.2
20260505040241 22 42 9.7 20.9 0.00 0.00 0.00 80 1009.2
20260505040140 22 63 9.7 20.9 0.00 0.00 0.00 80 1009.3
20260505040040 22 65 8.0 30.6 0.00 0.00 0.00 80 1009.3
20260505035938 22 63 8.0 30.6 0.00 0.00 0.00 80 1009.3
20260505035835 22 32 11.3 30.6 0.00 0.00 0.00 80 1009.3
20260505035734 22 0 12.9 30.6 0.00 0.00 0.00 80 1009.2
20260505035631 22 56 9.7 30.6 0.00 0.00 0.00 80 1009.2
20260505035532 22 63 9.7 30.6 0.00 0.00 0.00 80 1009.1
20260505035431 22 56 9.7 30.6 0.00 0.00 0.00 80 1009.3
20260505035333 22 55 11.3 30.6 0.00 0.00 0.00 80 1009.2
20260505035232 23 55 14.5 30.6 0.00 0.00 0.00 80 1009.2
20260505035132 23 72 14.5 30.6 0.00 0.00 0.00 80 1009.2
20260505035031 23 63 11.3 25.7 0.00 0.00 0.00 80 1009.2
20260505034934 23 0 9.7 25.7 0.00 0.00 0.00 80 1009.1
20260505034831 23 85 9.7 24.1 0.00 0.00 0.00 80 1009.1
20260505034731 23 0 11.3 24.1 0.00 0.00 0.00 80 1009.1
20260505034632 23 69 11.3 20.9 0.00 0.00 0.00 80 1009.2
20260505034530 23 92 9.7 19.3 0.00 0.00 0.00 80 1009.3
20260505034430 23 61 8.0 19.3 0.00 0.00 0.00 80 1009.4
20260505034327 23 71 8.0 19.3 0.00 0.00 0.00 80 1009.4
20260505034227 23 62 11.3 24.1 0.00 0.00 0.00 80 1009.4
20260505034125 23 35 9.7 24.1 0.00 0.00 0.00 80 1009.4
20260505034025 23 59 6.4 24.1 0.00 0.00 0.00 79 1009.4
20260505033921 23 83 8.0 24.1 0.00 0.00 0.00 79 1009.5
20260505033820 23 41 11.3 24.1 0.00 0.00 0.00 79 1009.4
20260505033719 23 25 11.3 24.1 0.00 0.00 0.00 79 1009.4
20260505033617 23 66 12.9 24.1 0.00 0.00 0.00 79 1009.5
20260505033516 23 63 12.9 24.1 0.00 0.00 0.00 79 1009.4
20260505033413 23 76 12.9 24.1 0.00 0.00 0.00 79 1009.4
20260505033313 23 83 12.9 24.1 0.00 0.00 0.00 79 1009.5
20260505033212 23 61 9.7 22.5 0.00 0.00 0.00 79 1009.4
20260505033109 23 72 11.3 29.0 0.00 0.00 0.00 79 1009.3
20260505033009 23 68 12.9 29.0 0.00 0.00 0.00 79 1009.3
20260505032907 23 78 11.3 29.0 0.00 0.00 0.00 79 1009.3
20260505032805 23 71 8.0 29.0 0.00 0.00 0.00 79 1009.3
20260505032704 23 0 9.7 29.0 0.00 0.00 0.00 79 1009.4
20260505032603 23 0 9.7 29.0 0.00 0.00 0.00 79 1009.4
20260505032502 23 71 8.0 29.0 0.00 0.00 0.00 79 1009.3
20260505032402 23 56 9.7 29.0 0.00 0.00 0.00 79 1009.4
20260505032304 23 63 14.5 29.0 0.00 0.00 0.00 79 1009.3
20260505032202 23 86 14.5 29.0 0.00 0.00 0.00 79 1009.3
20260505032101 23 0 11.3 24.1 0.00 0.00 0.00 79 1009.3
20260505032002 23 0 9.7 24.1 0.00 0.00 0.00 79 1009.4
20260505031904 23 73 8.0 24.1 0.00 0.00 0.00 79 1009.4
20260505031804 23 45 9.7 24.1 0.00 0.00 0.00 79 1009.3
20260505031702 23 80 11.3 24.1 0.00 0.00 0.00 79 1009.3
20260505031603 23 39 11.3 24.1 0.00 0.00 0.00 79 1009.2
20260505031502 23 80 11.3 24.1 0.00 0.00 0.00 79 1009.3
20260505031403 23 72 12.9 24.1 0.00 0.00 0.00 79 1009.3
20260505031303 23 65 11.3 24.1 0.00 0.00 0.00 79 1009.3
20260505031204 23 75 11.3 25.7 0.00 0.00 0.00 79 1009.2
20260505031102 23 79 14.5 27.4 0.00 0.00 0.00 79 1009.2
20260505031002 23 62 11.3 27.4 0.00 0.00 0.00 79 1009.3
20260505030903 23 71 9.7 27.4 0.00 0.00 0.00 79 1009.3
20260505030802 23 16 8.0 27.4 0.00 0.00 0.00 79 1009.2
20260505030702 23 69 9.7 27.4 0.00 0.00 0.00 79 1009.2
20260505030604 23 71 9.7 27.4 0.00 0.00 0.00 79 1009.2
20260505030502 23 68 9.7 27.4 0.00 0.00 0.00 79 1009.1
20260505030402 23 75 11.3 27.4 0.00 0.00 0.00 79 1009.2
20260505030304 23 58 14.5 27.4 0.00 0.00 0.00 79 1009.1
20260505030202 23 73 12.9 27.4 0.00 0.00 0.00 79 1009.1
20260505030004 23 68 11.3 24.1 0.00 0.00 0.00 79 1009.2
20260505025903 23 55 11.3 24.1 0.00 0.00 0.00 79 1009.1
20260505025803 23 72 11.3 24.1 0.00 0.00 0.00 79 1009.2
20260505025702 23 62 8.0 24.1 0.00 0.00 0.00 79 1009.1
20260505025604 23 52 9.7 24.1 0.00 0.00 0.00 79 1009.2
20260505025503 23 61 11.3 24.1 0.00 0.00 0.00 79 1009.2
20260505025402 23 78 11.3 24.1 0.00 0.00 0.00 79 1009.2
20260505025304 23 80 11.3 24.1 0.00 0.00 0.00 79 1009.2
20260505025203 23 87 14.5 24.1 0.00 0.00 0.00 79 1009.3
20260505025104 23 59 12.9 24.1 0.00 0.00 0.00 79 1009.2
20260505025004 23 63 8.0 24.1 0.00 0.00 0.00 79 1009.3
20260505024904 23 0 9.7 24.1 0.00 0.00 0.00 79 1009.4
20260505024802 23 69 9.7 24.1 0.00 0.00 0.00 79 1009.3
20260505024702 23 79 8.0 24.1 0.00 0.00 0.00 79 1009.3
20260505024602 23 44 8.0 24.1 0.00 0.00 0.00 79 1009.4
20260505024503 23 62 9.7 24.1 0.00 0.00 0.00 79 1009.3
20260505024403 23 59 12.9 24.1 0.00 0.00 0.00 79 1009.3
20260505024303 23 61 12.9 24.1 0.00 0.00 0.00 79 1009.3
20260505024202 23 72 9.7 24.1 0.00 0.00 0.00 79 1009.3
20260505024103 23 87 11.3 24.1 0.00 0.00 0.00 79 1009.3
20260505024003 23 76 12.9 24.1 0.00 0.00 0.00 79 1009.3
20260505023902 23 76 12.9 24.1 0.00 0.00 0.00 79 1009.3
20260505023803 23 72 14.5 24.1 0.00 0.00 0.00 78 1009.2
20260505023702 23 69 12.9 24.1 0.00 0.00 0.00 78 1009.3
20260505023602 23 73 8.0 24.1 0.00 0.00 0.00 78 1009.3
20260505023504 23 39 6.4 24.1 0.00 0.00 0.00 78 1009.3
20260505023402 23 66 6.4 24.1 0.00 0.00 0.00 78 1009.2
20260505023302 23 62 8.0 24.1 0.00 0.00 0.00 78 1009.2
20260505023203 23 79 11.3 24.1 0.00 0.00 0.00 78 1009.3
20260505023103 23 71 14.5 24.1 0.00 0.00 0.00 78 1009.2
20260505023004 23 148 16.1 24.1 0.00 0.00 0.00 78 1009.2
20260505022902 23 100 16.1 24.1 0.00 0.00 0.00 78 1009.2
20260505022803 23 97 12.9 32.2 0.00 0.00 0.00 78 1009.2
20260505022704 23 97 12.9 32.2 0.00 0.00 0.00 78 1009.2
20260505022603 23 97 12.9 32.2 0.00 0.00 0.00 78 1009.2
20260505022503 23 97 12.9 32.2 0.00 0.00 0.00 78 1009.2
20260505022403 23 97 12.9 32.2 0.00 0.00 0.00 78 1009.2
20260505022304 23 66 11.3 32.2 0.00 0.00 0.00 78 1009.1
20260505022204 23 89 9.7 32.2 0.00 0.00 0.00 78 1009.1
20260505022103 23 86 8.0 32.2 0.00 0.00 0.00 78 1009.1
20260505022002 23 61 14.5 32.2 0.00 0.00 0.00 77 1009.1
20260505021903 23 111 14.5 32.2 0.00 0.00 0.00 77 1009.1
20260505021803 23 114 14.5 29.0 0.00 0.00 0.00 77 1009.1
20260505021703 23 106 14.5 29.0 0.00 0.00 0.00 77 1009.1
20260505021603 23 49 12.9 29.0 0.00 0.00 0.00 77 1009.0
20260505021503 23 97 14.5 29.0 0.00 0.00 0.00 77 1009.0
20260505021403 23 75 14.5 29.0 0.00 0.00 0.00 77 1009.0
20260505021303 23 69 12.9 24.1 0.00 0.00 0.00 77 1009.0
20260505021201 23 114 14.5 24.1 0.00 0.00 0.00 77 1009.1
20260505021104 23 134 14.5 22.5 0.00 0.00 0.00 77 1009.1
20260505021003 23 118 14.5 25.7 0.00 0.00 0.00 77 1009.2
20260505020903 23 87 11.3 25.7 0.00 0.00 0.00 77 1009.2
20260505020803 23 110 9.7 25.7 0.00 0.00 0.00 77 1009.2
20260505020702 23 114 8.0 25.7 0.00 0.00 0.00 77 1009.2
20260505020602 23 97 9.7 25.7 0.00 0.00 0.00 77 1009.1
20260505020502 23 97 9.7 25.7 0.00 0.00 0.00 77 1009.1
20260505020404 23 96 11.3 30.6 0.00 0.00 0.00 77 1009.1
20260505020303 23 96 11.3 30.6 0.00 0.00 0.00 77 1009.1
20260505020204 23 96 11.3 30.6 0.00 0.00 0.00 77 1009.1
20260505020104 23 96 11.3 30.6 0.00 0.00 0.00 77 1009.0
20260505020004 23 47 8.0 30.6 0.00 0.00 0.00 77 1009.0
20260505015902 23 96 12.9 30.6 0.00 0.00 0.00 77 1009.0
20260505015804 23 93 16.1 30.6 0.00 0.00 0.00 77 1009.0
20260505015702 23 93 14.5 30.6 0.00 0.00 0.00 77 1009.0
20260505015602 23 90 14.5 30.6 0.00 0.00 0.00 77 1009.0
20260505015503 23 63 16.1 30.6 0.00 0.00 0.00 77 1009.0
20260505015404 23 83 14.5 25.7 0.00 0.00 0.00 76 1009.0
20260505015303 23 89 11.3 24.1 0.00 0.00 0.00 77 1009.0
20260505015203 23 99 9.7 29.0 0.00 0.00 0.00 77 1009.0
20260505015103 23 118 8.0 29.0 0.00 0.00 0.00 76 1009.0
20260505015004 23 86 8.0 29.0 0.00 0.00 0.00 76 1009.0
20260505014902 23 110 8.0 29.0 0.00 0.00 0.00 76 1008.9
20260505014802 23 104 9.7 29.0 0.00 0.00 0.00 76 1008.9
20260505014702 23 93 12.9 29.0 0.00 0.00 0.00 76 1008.9
20260505014602 23 100 12.9 30.6 0.00 0.00 0.00 76 1008.8
20260505014502 23 221 12.9 30.6 0.00 0.00 0.00 76 1008.9
20260505014403 23 165 16.1 30.6 0.00 0.00 0.00 76 1008.9
20260505014302 23 172 16.1 30.6 0.00 0.00 0.00 76 1008.9
20260505014202 23 182 11.3 30.6 0.00 0.00 0.00 76 1008.9
20260505014103 23 175 9.7 30.6 0.00 0.00 0.00 76 1008.7
20260505014004 23 164 11.3 30.6 0.00 0.00 0.00 76 1008.8
20260505013902 23 147 12.9 30.6 0.00 0.00 0.00 76 1008.8
20260505013802 23 166 14.5 30.6 0.00 0.00 0.00 76 1008.7
20260505013703 23 164 14.5 30.6 0.00 0.00 0.00 76 1008.7
20260505013601 23 164 11.3 24.1 0.00 0.00 0.00 76 1008.7
20260505013504 23 186 8.0 24.1 0.00 0.00 0.00 76 1008.7
20260505013403 23 128 8.0 24.1 0.00 0.00 0.00 76 1008.7
20260505013303 23 168 8.0 24.1 0.00 0.00 0.00 76 1008.7
20260505013203 23 154 9.7 24.1 0.00 0.00 0.00 76 1008.7
20260505013102 23 224 9.7 24.1 0.00 0.00 0.00 76 1008.6
20260505013002 23 138 9.7 24.1 0.00 0.00 0.00 76 1008.7
20260505012902 23 171 6.4 24.1 0.00 0.00 0.00 76 1008.6
20260505012802 23 148 9.7 24.1 0.00 0.00 0.00 76 1008.6
20260505012703 23 162 14.5 24.1 0.00 0.00 0.00 76 1008.4
20260505012603 23 171 9.7 22.5 0.00 0.00 0.00 76 1008.5
20260505012504 23 137 9.7 20.9 0.00 0.00 0.00 76 1008.5
20260505012402 23 111 8.0 20.9 0.00 0.00 0.00 76 1008.6
20260505012304 23 154 6.4 20.9 0.00 0.00 0.00 76 1008.6
20260505012202 23 121 8.0 20.9 0.00 0.00 0.00 76 1008.6
20260505012103 23 79 8.0 20.9 0.00 0.00 0.00 76 1008.6
20260505012004 23 96 8.0 20.9 0.00 0.00 0.00 76 1008.6
20260505011903 23 107 8.0 20.9 0.00 0.00 0.00 76 1008.6
20260505011802 23 85 8.0 20.9 0.00 0.00 0.00 76 1008.7
20260505011702 23 97 8.0 20.9 0.00 0.00 0.00 76 1008.7
20260505011603 23 75 9.7 20.9 0.00 0.00 0.00 76 1008.8
20260505011504 23 83 11.3 20.9 0.00 0.00 0.00 76 1008.8
20260505011403 23 93 9.7 20.9 0.00 0.00 0.00 76 1008.8
20260505011303 23 78 9.7 19.3 0.00 0.00 0.00 76 1008.7
20260505011202 23 41 9.7 19.3 0.00 0.00 0.00 76 1008.8
20260505011103 23 65 9.7 17.7 0.00 0.00 0.00 76 1008.7
20260505011003 23 76 8.0 22.5 0.00 0.00 0.00 76 1008.7
20260505010902 23 123 6.4 22.5 0.00 0.00 0.00 76 1008.7
20260505010801 23 49 8.0 22.5 0.00 0.00 0.00 76 1008.7
20260505010702 23 103 8.0 22.5 0.00 0.00 0.00 76 1008.7
20260505010603 23 113 8.0 22.5 0.00 0.00 0.00 76 1008.6
20260505010502 23 94 9.7 22.5 0.00 0.00 0.00 75 1008.7
20260505010402 23 90 11.3 27.4 0.00 0.00 0.00 75 1008.7
20260505010303 23 71 11.3 27.4 0.00 0.00 0.00 75 1008.7
20260505010202 23 155 9.7 27.4 0.00 0.00 0.00 75 1008.7
20260505010103 23 135 9.7 27.4 0.00 0.00 0.00 75 1008.7
20260505010004 23 83 11.3 27.4 0.00 0.00 0.00 75 1008.7
20260505005902 23 120 11.3 27.4 0.00 0.00 0.00 75 1008.8
20260505005802 23 97 9.7 27.4 0.00 0.00 0.00 75 1008.7
20260505005702 23 100 8.0 27.4 0.00 0.00 0.00 75 1008.6
20260505005603 23 35 11.3 27.4 0.00 0.00 0.00 75 1008.6
20260505005502 23 103 11.3 27.4 0.00 0.00 0.00 75 1008.6
20260505005403 23 103 9.7 24.1 0.00 0.00 0.00 75 1008.6
20260505005303 23 71 9.7 24.1 0.00 0.00 0.00 75 1008.5
20260505005203 23 154 9.7 24.1 0.00 0.00 0.00 75 1008.6
20260505005104 23 186 11.3 24.1 0.00 0.00 0.00 75 1008.5
20260505005004 23 212 11.3 24.1 0.00 0.00 0.00 75 1008.6
20260505004902 23 172 11.3 19.3 0.00 0.00 0.00 75 1008.5
20260505004804 23 157 9.7 19.3 0.00 0.00 0.00 75 1008.6
20260505004702 23 154 6.4 17.7 0.00 0.00 0.00 75 1008.5
20260505004604 23 151 8.0 17.7 0.00 0.00 0.00 75 1008.5
20260505004503 23 173 9.7 17.7 0.00 0.00 0.00 75 1008.5
20260505004401 24 158 6.4 17.7 0.00 0.00 0.00 75 1008.4
20260505004302 23 172 6.4 22.5 0.00 0.00 0.00 75 1008.4
20260505004202 24 209 6.4 22.5 0.00 0.00 0.00 75 1008.4
20260505004102 24 173 6.4 29.0 0.00 0.00 0.00 75 1008.4
20260505004002 24 166 8.0 29.0 0.00 0.00 0.00 74 1008.4
20260505003903 24 233 8.0 29.0 0.00 0.00 0.00 75 1008.4
20260505003802 24 24 6.4 29.0 0.00 0.00 0.00 74 1008.4
20260505003703 24 131 6.4 29.0 0.00 0.00 0.00 74 1008.4
20260505003603 24 251 6.4 29.0 0.00 0.00 0.00 74 1008.4
20260505003504 24 214 8.0 29.0 0.00 0.00 0.00 74 1008.4
20260505003404 24 348 11.3 29.0 0.00 0.00 0.00 74 1008.4
20260505003302 24 151 12.9 29.0 0.00 0.00 0.00 74 1008.5
20260505003203 24 233 11.3 29.0 0.00 0.00 0.00 74 1008.5
20260505003102 24 152 8.0 25.7 0.00 0.00 0.00 74 1008.5
20260505003002 24 169 6.4 25.7 0.00 0.00 0.00 74 1008.4
20260505002903 24 75 11.3 25.7 0.00 0.00 0.00 73 1008.4
20260505002803 24 207 14.5 25.7 0.00 0.00 0.00 74 1008.5
20260505002701 24 200 12.9 25.7 0.00 0.00 0.00 74 1008.4
20260505002601 24 141 12.9 20.9 0.00 0.00 0.00 73 1008.5
20260505002504 24 106 11.3 20.9 0.00 0.00 0.00 73 1008.4
20260505002402 24 141 8.0 20.9 0.00 0.00 0.00 73 1008.4
20260505002303 24 188 6.4 22.5 0.00 0.00 0.00 73 1008.5
20260505002203 24 89 9.7 22.5 0.00 0.00 0.00 73 1008.5
20260505002102 24 180 11.3 22.5 0.00 0.00 0.00 73 1008.5
20260505002003 24 118 9.7 22.5 0.00 0.00 0.00 73 1008.6
20260505001904 24 151 9.7 22.5 0.00 0.00 0.00 73 1008.5
20260505001802 24 175 9.7 22.5 0.00 0.00 0.00 73 1008.6
20260505001703 24 186 12.9 22.5 0.00 0.00 0.00 73 1008.6
20260505001602 24 165 11.3 22.5 0.00 0.00 0.00 73 1008.5
20260505001505 24 128 12.9 22.5 0.00 0.00 0.00 73 1008.6
20260505001403 25 157 12.9 22.5 0.00 0.00 0.00 73 1008.5
20260505001301 25 203 11.3 22.5 0.00 0.00 0.00 73 1008.6
20260505001202 25 149 9.7 19.3 0.00 0.00 0.00 73 1008.5
20260505001102 25 161 9.7 19.3 0.00 0.00 0.00 73 1008.5
20260505001002 25 188 11.3 22.5 0.00 0.00 0.00 73 1008.6
20260505000901 25 207 9.7 24.1 0.00 0.00 0.00 73 1008.7
20260505000759 25 154 8.0 24.1 0.00 0.00 0.00 73 1008.6
20260505000657 25 149 6.4 24.1 0.00 0.00 0.00 73 1008.7
20260505000557 25 164 6.4 27.4 0.00 0.00 0.00 73 1008.7
20260505000456 25 206 11.3 27.4 0.00 0.00 0.00 73 1008.6
20260505000353 25 168 11.3 27.4 0.00 0.00 0.00 72 1008.6
20260505000250 25 147 9.7 27.4 0.00 0.00 0.00 72 1008.6
20260505000145 25 152 12.9 27.4 0.00 0.00 0.00 72 1008.6
20260505000045 25 75 12.9 27.4 0.00 0.00 0.00 72 1008.6
20260504235946 25 166 11.3 27.4 0.00 0.00 0.00 72 1008.6
20260504235845 25 169 11.3 27.4 0.00 0.00 0.00 72 1008.6
20260504235744 25 80 11.3 27.4 0.00 0.00 0.00 72 1008.5
20260504235645 25 213 9.7 27.4 0.00 0.00 0.00 72 1008.6
20260504235545 25 133 9.7 25.7 0.00 0.00 0.00 72 1008.5
20260504235446 25 141 9.7 25.7 0.00 0.00 0.00 72 1008.5
20260504235344 25 120 8.0 25.7 0.00 0.00 0.00 72 1008.6
20260504235245 25 147 9.7 25.7 0.00 0.00 0.00 72 1008.5
20260504235144 25 125 11.3 25.7 0.00 0.00 0.00 72 1008.6
20260504235044 25 178 9.7 25.7 0.00 0.00 0.00 72 1008.6
20260504234944 25 96 8.0 25.7 0.00 0.00 0.00 72 1008.6
20260504234844 25 147 11.3 25.7 0.00 0.00 0.00 72 1008.6
20260504234746 25 179 12.9 25.7 0.00 0.00 0.00 72 1008.7
20260504234646 25 159 9.7 20.9 0.00 0.00 0.00 72 1008.6
20260504234545 25 165 9.7 20.9 0.00 0.00 0.00 72 1008.6
20260504234445 25 157 8.0 20.9 0.00 0.00 0.00 72 1008.8
20260504234345 25 127 6.4 20.9 0.00 0.00 0.00 72 1008.7
20260504234247 25 176 8.0 20.9 0.00 0.00 0.00 72 1008.7
20260504234145 25 196 8.0 20.9 0.00 0.00 0.00 72 1008.7
20260504234044 25 120 9.7 20.9 0.00 0.00 0.00 72 1008.7
20260504233944 25 171 9.7 20.9 0.00 0.00 0.00 72 1008.7
20260504233845 25 141 8.0 24.1 0.00 0.00 0.00 72 1008.7
20260504233744 25 55 8.0 24.1 0.00 0.00 0.00 72 1008.7
20260504233644 25 123 8.0 24.1 0.00 0.00 0.00 72 1008.7
20260504233545 25 85 8.0 24.1 0.00 0.00 0.00 72 1008.8
20260504233445 25 173 9.7 24.1 0.00 0.00 0.00 72 1008.8
20260504233344 25 172 9.7 24.1 0.00 0.00 0.00 72 1008.8
20260504233244 25 186 8.0 24.1 0.00 0.00 0.00 72 1008.8
20260504233146 25 121 9.7 27.4 0.00 0.00 0.00 72 1008.8
20260504233045 25 100 12.9 27.4 0.00 0.00 0.00 72 1008.8
20260504232944 25 123 9.7 27.4 0.00 0.00 0.00 72 1008.8
20260504232847 25 56 8.0 27.4 0.00 0.00 0.00 71 1008.8
20260504232744 25 89 12.9 27.4 0.00 0.00 0.00 71 1008.8
20260504232646 25 164 14.5 27.4 0.00 0.00 0.00 71 1008.8
20260504232545 25 144 12.9 27.4 0.00 0.00 0.00 71 1008.7
20260504232445 25 162 9.7 27.4 0.00 0.00 0.00 71 1008.7
20260504232344 25 130 12.9 27.4 0.00 0.00 0.00 71 1008.8
20260504232244 25 130 14.5 27.4 0.00 0.00 0.00 71 1008.9
20260504232144 25 71 12.9 24.1 0.00 0.00 0.00 71 1008.8
20260504232043 25 158 11.3 24.1 0.00 0.00 0.00 71 1008.9
20260504231942 25 85 9.7 22.5 0.00 0.00 0.00 71 1008.9
20260504231840 25 127 9.7 22.5 0.00 0.00 0.00 71 1008.9
20260504231740 25 97 6.4 22.5 0.00 0.00 0.00 71 1008.9
20260504231637 25 288 6.4 22.5 0.00 0.00 0.00 71 1008.9
20260504231535 25 116 8.0 22.5 0.00 0.00 0.00 70 1008.8
20260504231435 25 186 9.7 22.5 0.00 0.00 0.00 70 1008.8
20260504231333 25 125 12.9 22.5 0.00 0.00 0.00 70 1008.8
20260504231232 25 252 11.3 22.5 0.00 0.00 0.00 70 1008.8
20260504231132 25 159 9.7 20.9 0.00 0.00 0.00 70 1008.9
20260504231031 25 159 11.3 20.9 0.00 0.00 0.00 70 1008.9
20260504230932 25 203 9.7 22.5 0.00 0.00 0.00 70 1009.0
20260504230831 25 152 9.7 22.5 0.00 0.00 0.00 70 1009.1
20260504230731 25 166 9.7 22.5 0.00 0.00 0.00 70 1009.1
20260504230634 25 127 9.7 22.5 0.00 0.00 0.00 70 1009.0
20260504230531 25 178 11.3 22.5 0.00 0.00 0.00 70 1009.0
20260504230430 25 149 9.7 22.5 0.00 0.00 0.00 70 1009.1
20260504230331 25 289 11.3 22.5 0.00 0.00 0.00 70 1009.0
20260504230232 25 186 9.7 22.5 0.00 0.00 0.00 70 1009.0
20260504230133 25 169 9.7 22.5 0.00 0.00 0.00 70 1008.9
20260504230031 25 159 11.3 22.5 0.00 0.00 0.00 70 1009.0
20260504225932 25 154 11.3 22.5 0.00 0.00 0.00 69 1009.0
20260504225832 25 190 11.3 20.9 0.00 0.00 0.00 69 1008.8
20260504225731 25 203 9.7 22.5 0.00 0.00 0.00 69 1008.9
20260504225632 25 185 11.3 22.5 0.00 0.00 0.00 69 1008.9
20260504225532 25 155 9.7 22.5 0.00 0.00 0.00 69 1008.9
20260504225431 26 155 9.7 25.7 0.00 0.00 0.00 69 1008.8
20260504225331 26 93 11.3 25.7 0.00 0.00 0.00 69 1008.9
20260504225231 26 158 11.3 25.7 0.00 0.00 0.00 69 1008.9
20260504225131 26 165 11.3 25.7 0.00 0.00 0.00 69 1008.9
20260504225031 26 159 11.3 25.7 0.00 0.00 0.00 69 1009.0
20260504224932 26 96 11.3 25.7 0.00 0.00 0.00 68 1009.1
20260504224831 26 164 11.3 25.7 0.00 0.00 0.00 68 1009.1
20260504224732 26 158 12.9 25.7 0.00 0.00 0.00 68 1009.1
20260504224631 26 152 12.9 25.7 0.00 0.00 0.00 68 1009.1
20260504224532 26 69 9.7 25.7 0.00 0.00 0.00 68 1009.1
20260504224431 26 159 6.4 19.3 0.00 0.00 0.00 68 1009.1
20260504224331 26 155 6.4 29.0 0.00 0.00 0.00 69 1009.2
20260504224233 26 159 8.0 29.0 0.00 0.00 0.00 68 1009.1
20260504224132 26 107 11.3 29.0 0.00 0.00 0.00 68 1009.1
20260504224031 26 224 11.3 29.0 0.00 0.00 0.00 68 1009.2
20260504223932 26 113 4.8 29.0 0.00 0.00 0.00 68 1009.1
20260504223831 26 113 4.8 29.0 0.00 0.00 0.00 68 1009.1
20260504223731 26 82 4.8 29.0 0.00 0.00 0.00 68 1009.1
20260504223631 26 140 8.0 29.0 0.00 0.00 0.00 68 1009.1
20260504223533 26 120 12.9 29.0 0.00 0.00 0.00 67 1009.1
20260504223431 26 175 12.9 29.0 0.00 0.00 0.00 67 1009.1
20260504223329 26 190 11.3 25.7 0.00 0.00 0.00 67 1009.2
20260504223227 26 154 9.7 25.7 0.00 0.00 0.00 67 1009.2
20260504223127 26 130 9.7 25.7 0.00 0.00 0.00 67 1009.2
20260504223025 26 100 9.7 25.7 0.00 0.00 0.00 68 1009.2
20260504222924 26 209 9.7 25.7 0.00 0.00 0.00 67 1009.2
20260504222821 26 231 9.7 25.7 0.00 0.00 0.00 67 1009.3
20260504222720 26 172 11.3 25.7 0.00 0.00 0.00 67 1009.3
20260504222618 26 282 14.5 25.7 0.00 0.00 0.00 66 1009.2
20260504222518 26 175 12.9 24.1 0.00 0.00 0.00 66 1009.3
20260504222416 26 118 9.7 22.5 0.00 0.00 0.00 66 1009.2
20260504222314 26 238 8.0 20.9 0.00 0.00 0.00 67 1009.2
20260504222212 26 128 9.7 20.9 0.00 0.00 0.00 67 1009.3
20260504222111 26 172 9.7 20.9 0.00 0.00 0.00 66 1009.3
20260504222010 26 75 9.7 27.4 0.00 0.00 0.00 65 1009.4
20260504221907 26 162 8.0 27.4 0.00 0.00 0.00 65 1009.3
20260504221808 26 133 8.0 27.4 0.00 0.00 0.00 66 1009.4
20260504221705 26 182 11.3 27.4 0.00 0.00 0.00 65 1009.3
20260504221604 26 161 14.5 27.4 0.00 0.00 0.00 65 1009.3
20260504221504 26 154 9.7 27.4 0.00 0.00 0.00 65 1009.4
20260504221403 26 189 6.4 27.4 0.00 0.00 0.00 65 1009.4
20260504221303 26 276 9.7 27.4 0.00 0.00 0.00 65 1009.4
20260504221203 26 176 14.5 27.4 0.00 0.00 0.00 64 1009.4
20260504221103 26 204 16.1 27.4 0.00 0.00 0.00 64 1009.5
20260504221003 26 172 12.9 24.1 0.00 0.00 0.00 64 1009.5
20260504220903 26 164 12.9 20.9 0.00 0.00 0.00 64 1009.4
20260504220803 26 148 9.7 20.9 0.00 0.00 0.00 63 1009.4
20260504220702 26 151 6.4 17.7 0.00 0.00 0.00 64 1009.4
20260504220602 27 213 6.4 20.9 0.00 0.00 0.00 64 1009.4
20260504220504 26 142 6.4 22.5 0.00 0.00 0.00 64 1009.4
20260504220402 27 144 9.7 22.5 0.00 0.00 0.00 64 1009.4
20260504220302 27 145 9.7 22.5 0.00 0.00 0.00 63 1009.5
20260504220202 27 274 11.3 22.5 0.00 0.00 0.00 62 1009.5
20260504220003 27 274 11.3 22.5 0.00 0.00 0.00 62 1009.4
20260504215904 27 274 11.3 22.5 0.00 0.00 0.00 62 1009.4
20260504215802 27 200 11.3 22.5 0.00 0.00 0.00 62 1009.4
20260504215702 27 212 12.9 22.5 0.00 0.00 0.00 61 1009.4
20260504215602 27 202 12.9 22.5 0.00 0.00 0.00 61 1009.4
20260504215504 27 233 9.7 20.9 0.00 0.00 0.00 62 1009.4
20260504215403 27 114 8.0 20.9 0.00 0.00 0.00 62 1009.4
20260504215304 27 159 8.0 20.9 0.00 0.00 0.00 62 1009.4
20260504215204 27 147 9.7 20.9 0.00 0.00 0.00 61 1009.5
20260504215104 27 123 9.7 20.9 0.00 0.00 0.00 61 1009.5
20260504215003 27 158 9.7 20.9 0.00 0.00 0.00 61 1009.4
20260504214903 27 210 11.3 29.0 0.00 0.00 0.00 61 1009.5
20260504214803 27 196 11.3 29.0 0.00 0.00 0.00 60 1009.5
20260504214702 27 240 9.7 29.0 0.00 0.00 0.00 61 1009.5
20260504214602 27 202 6.4 29.0 0.00 0.00 0.00 61 1009.5
20260504214504 27 111 9.7 29.0 0.00 0.00 0.00 61 1009.5
20260504214403 27 141 9.7 29.0 0.00 0.00 0.00 60 1009.5
20260504214303 27 189 8.0 29.0 0.00 0.00 0.00 61 1009.4
20260504214204 27 180 9.7 29.0 0.00 0.00 0.00 61 1009.5
20260504214102 27 157 11.3 29.0 0.00 0.00 0.00 61 1009.5
20260504214003 27 137 11.3 29.0 0.00 0.00 0.00 61 1009.6
20260504213902 27 130 9.7 20.9 0.00 0.00 0.00 61 1009.6
20260504213803 27 85 9.7 22.5 0.00 0.00 0.00 61 1009.5
20260504213702 27 121 9.7 24.1 0.00 0.00 0.00 61 1009.5
20260504213602 27 111 11.3 24.1 0.00 0.00 0.00 60 1009.6
20260504213503 27 71 9.7 24.1 0.00 0.00 0.00 60 1009.6
20260504213403 27 86 8.0 24.1 0.00 0.00 0.00 60 1009.6
20260504213304 27 120 6.4 24.1 0.00 0.00 0.00 60 1009.7
20260504213202 27 116 8.0 24.1 0.00 0.00 0.00 60 1009.7
20260504213102 27 99 11.3 25.7 0.00 0.00 0.00 60 1009.6
20260504213002 27 93 11.3 25.7 0.00 0.00 0.00 60 1009.7
20260504212903 27 180 11.3 25.7 0.00 0.00 0.00 60 1009.7
20260504212802 27 137 9.7 25.7 0.00 0.00 0.00 60 1009.6
20260504212702 27 100 8.0 25.7 0.00 0.00 0.00 61 1009.6
20260504212603 27 133 9.7 25.7 0.00 0.00 0.00 60 1009.7
20260504212502 27 159 8.0 25.7 0.00 0.00 0.00 60 1009.7
20260504212403 27 130 9.7 25.7 0.00 0.00 0.00 59 1009.7
20260504212304 27 202 14.5 25.7 0.00 0.00 0.00 59 1009.7
20260504212202 27 157 14.5 25.7 0.00 0.00 0.00 58 1009.7
20260504212105 27 190 11.3 22.5 0.00 0.00 0.00 59 1009.7
20260504212004 27 265 8.0 19.3 0.00 0.00 0.00 58 1009.7
20260504211902 27 94 8.0 19.3 0.00 0.00 0.00 59 1009.7
20260504211803 27 130 8.0 19.3 0.00 0.00 0.00 60 1009.7
20260504211702 27 217 9.7 19.3 0.00 0.00 0.00 59 1009.8
20260504211602 27 107 9.7 20.9 0.00 0.00 0.00 58 1009.8
20260504211503 27 99 9.7 25.7 0.00 0.00 0.00 58 1009.9
20260504211402 28 96 9.7 25.7 0.00 0.00 0.00 57 1009.9
20260504211301 28 140 8.0 25.7 0.00 0.00 0.00 58 1009.9
20260504211200 28 140 9.7 25.7 0.00 0.00 0.00 57 1010.0
20260504211059 28 147 11.3 27.4 0.00 0.00 0.00 57 1009.9
20260504210956 28 96 9.7 27.4 0.00 0.00 0.00 57 1010.0
20260504210854 28 97 9.7 27.4 0.00 0.00 0.00 59 1009.9
20260504210754 28 171 12.9 27.4 0.00 0.00 0.00 58 1010.0
20260504210653 28 200 16.1 27.4 0.00 0.00 0.00 58 1010.0
20260504210550 27 199 14.5 27.4 0.00 0.00 0.00 58 1009.9
20260504210449 27 206 8.0 27.4 0.00 0.00 0.00 60 1010.0
20260504210349 27 173 8.0 27.4 0.00 0.00 0.00 59 1010.0
20260504210247 27 148 11.3 27.4 0.00 0.00 0.00 58 1010.0
20260504210145 27 197 12.9 27.4 0.00 0.00 0.00 58 1009.9
20260504210046 27 165 11.3 20.9 0.00 0.00 0.00 59 1010.0
20260504205940 27 185 11.3 20.9 0.00 0.00 0.00 58 1010.0
20260504205840 27 190 11.3 20.9 0.00 0.00 0.00 58 1010.0
20260504205741 27 183 9.7 20.9 0.00 0.00 0.00 58 1010.2
20260504205641 27 117 8.0 22.5 0.00 0.00 0.00 59 1010.2
20260504205541 27 96 8.0 22.5 0.00 0.00 0.00 58 1010.1
20260504205440 27 161 9.7 22.5 0.00 0.00 0.00 58 1010.2
20260504205341 28 179 11.3 22.5 0.00 0.00 0.00 57 1010.2
20260504205242 28 120 8.0 22.5 0.00 0.00 0.00 57 1010.2
20260504205142 28 264 6.4 22.5 0.00 0.00 0.00 59 1010.3
20260504205040 28 118 8.0 22.5 0.00 0.00 0.00 59 1010.3
20260504204940 28 168 11.3 22.5 0.00 0.00 0.00 58 1010.2
20260504204841 28 113 12.9 29.0 0.00 0.00 0.00 57 1010.3
20260504204740 28 118 11.3 29.0 0.00 0.00 0.00 57 1010.1
20260504204641 28 121 9.7 29.0 0.00 0.00 0.00 57 1010.2
20260504204541 28 123 9.7 29.0 0.00 0.00 0.00 56 1010.2
20260504204440 28 4 12.9 29.0 0.00 0.00 0.00 55 1010.2
20260504204334 28 168 12.9 29.0 0.00 0.00 0.00 55 1010.3
20260504204234 29 157 9.7 29.0 0.00 0.00 0.00 56 1010.2
20260504204131 29 107 9.7 29.0 0.00 0.00 0.00 56 1010.3
20260504204030 29 250 11.3 29.0 0.00 0.00 0.00 56 1010.3
20260504203932 29 123 9.7 29.0 0.00 0.00 0.00 56 1010.2
20260504203832 28 103 6.4 20.9 0.00 0.00 0.00 55 1010.2
20260504203730 28 178 8.0 20.9 0.00 0.00 0.00 57 1010.2
20260504203631 28 125 8.0 20.9 0.00 0.00 0.00 57 1010.2
20260504203532 28 152 8.0 20.9 0.00 0.00 0.00 58 1010.2
20260504203431 28 149 8.0 20.9 0.00 0.00 0.00 57 1010.2
20260504203331 27 182 8.0 20.9 0.00 0.00 0.00 56 1010.2
20260504203232 28 195 9.7 20.9 0.00 0.00 0.00 56 1010.3
20260504203115 28 164 9.7 24.1 0.00 0.00 0.00 56 1010.4
20260504203015 28 245 9.7 24.1 0.00 0.00 0.00 55 1010.4
20260504202913 28 161 8.0 24.1 0.00 0.00 0.00 55 1010.5
20260504202810 28 212 9.7 24.1 0.00 0.00 0.00 55 1010.5
20260504202709 28 157 11.3 24.1 0.00 0.00 0.00 54 1010.5
20260504202607 29 204 8.0 24.1 0.00 0.00 0.00 54 1010.5
20260504202502 29 178 6.4 24.1 0.00 0.00 0.00 54 1010.5
20260504202403 29 141 8.0 24.1 0.00 0.00 0.00 54 1010.5
20260504202304 29 196 11.3 24.1 0.00 0.00 0.00 54 1010.6
20260504202203 29 226 12.9 24.1 0.00 0.00 0.00 54 1010.5
20260504202102 29 196 8.0 17.7 0.00 0.00 0.00 53 1010.5
20260504202003 29 224 6.4 17.7 0.00 0.00 0.00 56 1010.6
20260504201902 28 226 4.8 17.7 0.00 0.00 0.00 57 1010.7
20260504201803 28 241 4.8 17.7 0.00 0.00 0.00 56 1010.6
20260504201701 28 133 6.4 22.5 0.00 0.00 0.00 56 1010.6
20260504201603 27 145 6.4 22.5 0.00 0.00 0.00 58 1010.6
20260504201502 27 102 9.7 25.7 0.00 0.00 0.00 57 1010.7
20260504201402 27 165 8.0 25.7 0.00 0.00 0.00 57 1010.8
20260504201304 27 189 6.4 25.7 0.00 0.00 0.00 57 1010.8
20260504201203 27 96 8.0 25.7 0.00 0.00 0.00 57 1010.8
20260504201102 27 190 9.7 25.7 0.00 0.00 0.00 56 1010.8
20260504201002 27 133 8.0 25.7 0.00 0.00 0.00 56 1010.8
20260504200903 28 162 11.3 25.7 0.00 0.00 0.00 56 1010.8
20260504200802 28 195 12.9 25.7 0.00 0.00 0.00 54 1010.9
20260504200702 28 161 12.9 25.7 0.00 0.00 0.00 54 1010.9
20260504200604 28 159 12.9 25.7 0.00 0.00 0.00 55 1010.8
20260504200504 28 141 9.7 24.1 0.00 0.00 0.00 56 1010.8
20260504200401 28 159 9.7 24.1 0.00 0.00 0.00 57 1010.9
20260504200301 28 175 9.7 25.7 0.00 0.00 0.00 56 1010.9
20260504200204 28 168 9.7 25.7 0.00 0.00 0.00 57 1011.0
20260504200103 28 71 12.9 25.7 0.00 0.00 0.00 56 1010.9
20260504200004 27 123 12.9 25.7 0.00 0.00 0.00 56 1011.0
20260504195903 27 117 9.7 25.7 0.00 0.00 0.00 56 1011.0
20260504195803 27 180 9.7 25.7 0.00 0.00 0.00 56 1011.0
20260504195702 28 133 9.7 25.7 0.00 0.00 0.00 55 1011.1
20260504195603 28 193 9.7 25.7 0.00 0.00 0.00 55 1011.2
20260504195503 28 165 12.9 25.7 0.00 0.00 0.00 55 1011.1
20260504195402 28 162 12.9 25.7 0.00 0.00 0.00 53 1011.2
20260504195304 28 203 9.7 20.9 0.00 0.00 0.00 53 1011.2
20260504195202 28 148 9.7 20.9 0.00 0.00 0.00 53 1011.1
20260504195102 28 154 8.0 24.1 0.00 0.00 0.00 53 1011.0
20260504195003 28 209 8.0 24.1 0.00 0.00 0.00 53 1011.0
20260504194902 28 233 9.7 24.1 0.00 0.00 0.00 54 1011.0
20260504194802 28 164 9.7 24.1 0.00 0.00 0.00 53 1011.1
20260504194702 28 151 11.3 24.1 0.00 0.00 0.00 54 1011.0
20260504194603 28 172 11.3 24.1 0.00 0.00 0.00 54 1011.0
20260504194504 28 157 12.9 24.1 0.00 0.00 0.00 55 1011.1
20260504194402 28 140 11.3 24.1 0.00 0.00 0.00 55 1011.1
20260504194304 28 162 9.7 24.1 0.00 0.00 0.00 55 1011.1
20260504194203 28 58 11.3 24.1 0.00 0.00 0.00 56 1011.2
20260504194102 28 159 11.3 22.5 0.00 0.00 0.00 56 1011.2
20260504194003 28 178 11.3 22.5 0.00 0.00 0.00 56 1011.2
20260504193901 28 111 9.7 22.5 0.00 0.00 0.00 56 1011.2
20260504193802 28 52 9.7 22.5 0.00 0.00 0.00 55 1011.3
20260504193702 28 154 9.7 22.5 0.00 0.00 0.00 56 1011.3
20260504193602 28 169 9.7 22.5 0.00 0.00 0.00 55 1011.3
20260504193504 28 243 8.0 22.5 0.00 0.00 0.00 56 1011.3
20260504193403 28 193 9.7 22.5 0.00 0.00 0.00 55 1011.3
20260504193302 28 123 12.9 22.5 0.00 0.00 0.00 55 1011.3
20260504193203 28 179 11.3 22.5 0.00 0.00 0.00 56 1011.4
20260504193103 28 111 8.0 19.3 0.00 0.00 0.00 56 1011.3
20260504193004 28 128 6.4 19.3 0.00 0.00 0.00 55 1011.4
20260504192902 28 71 9.7 19.3 0.00 0.00 0.00 54 1011.5
20260504192803 28 148 11.3 19.3 0.00 0.00 0.00 53 1011.4
20260504192703 28 78 9.7 17.7 0.00 0.00 0.00 54 1011.4
20260504192602 28 135 6.4 16.1 0.00 0.00 0.00 53 1011.4
20260504192505 28 223 4.8 19.3 0.00 0.00 0.00 52 1011.4
20260504192404 28 186 6.4 19.3 0.00 0.00 0.00 54 1011.5
20260504192304 28 154 4.8 19.3 0.00 0.00 0.00 55 1011.5
20260504192202 28 82 6.4 19.3 0.00 0.00 0.00 56 1011.5
20260504192104 28 189 9.7 20.9 0.00 0.00 0.00 56 1011.5
20260504192002 28 148 9.7 20.9 0.00 0.00 0.00 56 1011.6
20260504191901 27 145 8.0 20.9 0.00 0.00 0.00 56 1011.7
20260504191801 27 213 8.0 20.9 0.00 0.00 0.00 56 1011.6
20260504191702 27 166 12.9 20.9 0.00 0.00 0.00 55 1011.7
20260504191601 27 171 12.9 22.5 0.00 0.00 0.00 55 1011.6
20260504191503 28 203 9.7 22.5 0.00 0.00 0.00 55 1011.7
20260504191403 28 173 9.7 22.5 0.00 0.00 0.00 54 1011.6
20260504191303 28 199 12.9 22.5 0.00 0.00 0.00 54 1011.6
20260504191202 28 228 11.3 22.5 0.00 0.00 0.00 54 1011.6
20260504191104 28 226 6.4 22.5 0.00 0.00 0.00 54 1011.8
20260504191002 28 243 8.0 22.5 0.00 0.00 0.00 55 1011.8
20260504190902 27 233 11.3 24.1 0.00 0.00 0.00 55 1011.7
20260504190804 28 221 12.9 24.1 0.00 0.00 0.00 54 1011.8
20260504190702 28 165 11.3 24.1 0.00 0.00 0.00 55 1011.9
20260504190603 28 165 9.7 24.1 0.00 0.00 0.00 55 1011.8
20260504190504 27 109 9.7 24.1 0.00 0.00 0.00 56 1011.8
20260504190404 27 154 11.3 24.1 0.00 0.00 0.00 55 1011.8
20260504190301 27 189 12.9 24.1 0.00 0.00 0.00 55 1011.8
20260504190200 27 189 14.5 24.1 0.00 0.00 0.00 55 1011.8
20260504190059 27 202 16.1 24.1 0.00 0.00 0.00 55 1011.8
20260504185956 27 203 14.5 27.4 0.00 0.00 0.00 56 1011.7
20260504185855 27 259 12.9 27.4 0.00 0.00 0.00 55 1011.8
20260504185754 27 234 14.5 27.4 0.00 0.00 0.00 54 1011.9
20260504185652 27 206 14.5 27.4 0.00 0.00 0.00 54 1011.8
20260504185551 27 227 14.5 27.4 0.00 0.00 0.00 53 1011.9
20260504185449 28 206 14.5 27.4 0.00 0.00 0.00 53 1011.9
20260504185348 28 190 12.9 27.4 0.00 0.00 0.00 53 1011.8
20260504185246 28 188 14.5 27.4 0.00 0.00 0.00 52 1011.9
20260504185146 28 214 14.5 27.4 0.00 0.00 0.00 52 1011.9
20260504185045 28 261 14.5 27.4 0.00 0.00 0.00 54 1011.9
20260504184944 28 224 11.3 25.7 0.00 0.00 0.00 53 1011.9
20260504184842 28 173 8.0 27.4 0.00 0.00 0.00 54 1011.9
20260504184740 28 109 6.4 27.4 0.00 0.00 0.00 53 1011.9
20260504184638 28 202 4.8 27.4 0.00 0.00 0.00 53 1011.9
20260504184540 28 117 4.8 27.4 0.00 0.00 0.00 55 1012.0
20260504184437 28 189 9.7 27.4 0.00 0.00 0.00 54 1012.0
20260504184339 28 117 9.7 27.4 0.00 0.00 0.00 55 1012.0
20260504184239 27 142 9.7 27.4 0.00 0.00 0.00 55 1012.0
20260504184138 27 107 12.9 27.4 0.00 0.00 0.00 54 1012.0
20260504184039 27 135 17.7 27.4 0.00 0.00 0.00 54 1012.0
20260504183938 27 161 16.1 27.4 0.00 0.00 0.00 54 1012.0
20260504183837 27 206 12.9 24.1 0.00 0.00 0.00 54 1012.0
20260504183737 27 210 11.3 20.9 0.00 0.00 0.00 55 1012.0
20260504183638 27 213 11.3 20.9 0.00 0.00 0.00 52 1012.0
20260504183537 27 202 11.3 20.9 0.00 0.00 0.00 52 1011.9
20260504183437 28 248 12.9 20.9 0.00 0.00 0.00 52 1012.0
20260504183337 28 235 12.9 20.9 0.00 0.00 0.00 51 1011.9
20260504183238 28 226 11.3 22.5 0.00 0.00 0.00 52 1012.0
20260504183137 28 214 9.7 22.5 0.00 0.00 0.00 54 1012.0
20260504183039 28 162 8.0 25.7 0.00 0.00 0.00 55 1011.9
20260504182938 28 106 6.4 25.7 0.00 0.00 0.00 56 1011.8
20260504182838 28 149 6.4 25.7 0.00 0.00 0.00 56 1011.8
20260504182737 27 276 6.4 25.7 0.00 0.00 0.00 54 1011.8
20260504182639 27 233 6.4 25.7 0.00 0.00 0.00 54 1011.9
20260504182537 27 220 6.4 25.7 0.00 0.00 0.00 54 1011.8
20260504182438 27 233 9.7 25.7 0.00 0.00 0.00 54 1011.9
20260504182335 27 227 12.9 25.7 0.00 0.00 0.00 54 1012.0
20260504182234 27 210 12.9 25.7 0.00 0.00 0.00 54 1012.1
20260504182132 27 162 14.5 25.7 0.00 0.00 0.00 55 1012.1
20260504182030 27 168 14.5 25.7 0.00 0.00 0.00 55 1012.1
20260504181932 27 178 12.9 25.7 0.00 0.00 0.00 56 1012.2
20260504181831 27 154 12.9 25.7 0.00 0.00 0.00 57 1012.2
20260504181730 27 165 11.3 25.7 0.00 0.00 0.00 58 1012.2
20260504181627 27 158 11.3 25.7 0.00 0.00 0.00 58 1012.2
20260504181526 26 172 9.7 25.7 0.00 0.00 0.00 58 1012.2
20260504181425 26 190 11.3 25.7 0.00 0.00 0.00 57 1012.3
20260504181323 27 203 16.1 25.7 0.00 0.00 0.00 56 1012.3
20260504181222 27 182 14.5 25.7 0.00 0.00 0.00 55 1012.3
20260504181120 27 142 11.3 25.7 0.00 0.00 0.00 56 1012.3
20260504181020 27 182 14.5 25.7 0.00 0.00 0.00 55 1012.3
20260504180918 27 193 12.9 25.7 0.00 0.00 0.00 56 1012.3
20260504180816 27 231 9.7 25.7 0.00 0.00 0.00 56 1012.3
20260504180715 27 61 11.3 25.7 0.00 0.00 0.00 56 1012.3
20260504180613 27 56 12.9 25.7 0.00 0.00 0.00 56 1012.3
20260504180513 27 172 12.9 25.7 0.00 0.00 0.00 55 1012.3
20260504180410 27 110 14.5 25.7 0.00 0.00 0.00 57 1012.4
20260504180309 27 168 11.3 25.7 0.00 0.00 0.00 57 1012.4
20260504180207 27 166 9.7 19.3 0.00 0.00 0.00 57 1012.4
20260504180106 27 209 12.9 19.3 0.00 0.00 0.00 57 1012.4